Observation data for Sierra Blanca on 11/10/2019      Previous  Date       Current Mesonet Observations  Soil Data  Daily Summary Page  Observations in Plain Language
KSB1 100600Z 24005KT 14/11 A302 RMK A01 T01420106  RH  079%=      5-min Rain = 0
KSB1 100601Z 24005KT 14/11 A302 RMK A01 T01400105  RH  080%=      5-min Rain = 0
KSB1 100602Z 23005KT 14/10 A302 RMK A01 T01380104  RH  080%=      5-min Rain = 0
KSB1 100603Z 23004KT 14/10 A302 RMK A01 T01360104  RH  081%=      5-min Rain = 0
KSB1 100604Z 23004KT 14/11 A302 RMK A01 T01360105  RH  082%=      5-min Rain = 0
KSB1 100605Z 23004KT 14/11 A302 RMK A01 T01360106  RH  082%=      5-min Rain = 0
KSB1 100606Z 23004KT 14/11 A302 RMK A01 T01360106  RH  082%=      5-min Rain = 0
KSB1 100607Z 24004KT 14/11 A302 RMK A01 T01370106  RH  082%=      5-min Rain = 0
KSB1 100608Z 24004KT 14/11 A302 RMK A01 T01380107  RH  082%=      5-min Rain = 0
KSB1 100609Z 24004KT 14/11 A302 RMK A01 T01380107  RH  081%=      5-min Rain = 0
KSB1 100610Z 24004KT 14/11 A302 RMK A01 T01390107  RH  081%=      5-min Rain = 0
KSB1 100611Z 25004KT 14/11 A302 RMK A01 T01390107  RH  081%=      5-min Rain = 0
KSB1 100612Z 25004KT 14/11 A302 RMK A01 T01390107  RH  081%=      5-min Rain = 0
KSB1 100613Z 24005KT 14/11 A302 RMK A01 T01390108  RH  081%=      5-min Rain = 0
KSB1 100614Z 24005KT 14/11 A302 RMK A01 T01400107  RH  081%=      5-min Rain = 0
KSB1 100615Z 24005KT 14/11 A302 RMK A01 T01400108  RH  081%=      5-min Rain = 0
KSB1 100616Z 24004KT 14/11 A302 RMK A01 T01400108  RH  081%=      5-min Rain = 0
KSB1 100617Z 24004KT 14/11 A302 RMK A01 T01400108  RH  081%=      5-min Rain = 0
KSB1 100618Z 24004KT 14/11 A302 RMK A01 T01390107  RH  081%=      5-min Rain = 0
KSB1 100619Z 24004KT 14/11 A302 RMK A01 T01390107  RH  081%=      5-min Rain = 0
KSB1 100620Z 23004KT 14/11 A302 RMK A01 T01380107  RH  081%=      5-min Rain = 0
KSB1 100621Z 23004KT 14/11 A302 RMK A01 T01380107  RH  082%=      5-min Rain = 0
KSB1 100622Z 23005KT 14/11 A302 RMK A01 T01380108  RH  082%=      5-min Rain = 0
KSB1 100623Z 23005KT 14/11 A302 RMK A01 T01380107  RH  082%=      5-min Rain = 0
KSB1 100624Z 23005KT 14/11 A302 RMK A01 T01380107  RH  082%=      5-min Rain = 0
KSB1 100625Z 23004KT 14/11 A302 RMK A01 T01390108  RH  082%=      5-min Rain = 0
KSB1 100626Z 22004KT 14/11 A302 RMK A01 T01380108  RH  082%=      5-min Rain = 0
KSB1 100627Z 22004KT 14/11 A302 RMK A01 T01380107  RH  082%=      5-min Rain = 0
KSB1 100628Z 22004KT 14/11 A302 RMK A01 T01370108  RH  082%=      5-min Rain = 0
KSB1 100629Z 22005KT 14/11 A302 RMK A01 T01380108  RH  082%=      5-min Rain = 0
KSB1 100630Z 22005KT 14/11 A302 RMK A01 T01370107  RH  082%=      5-min Rain = 0
KSB1 100631Z 22005KT 14/11 A302 RMK A01 T01360107  RH  082%=      5-min Rain = 0
KSB1 100632Z 22005KT 14/11 A302 RMK A01 T01360107  RH  083%=      5-min Rain = 0
KSB1 100633Z 22006KT 14/11 A302 RMK A01 T01350106  RH  083%=      5-min Rain = 0
KSB1 100634Z 22005KT 13/11 A302 RMK A01 T01340106  RH  083%=      5-min Rain = 0
KSB1 100635Z 23005KT 13/11 A302 RMK A01 T01330105  RH  083%=      5-min Rain = 0
KSB1 100636Z 23005KT 13/11 A302 RMK A01 T01320106  RH  084%=      5-min Rain = 0
KSB1 100637Z 23005KT 13/11 A302 RMK A01 T01320106  RH  084%=      5-min Rain = 0
KSB1 100638Z 24005KT 13/11 A302 RMK A01 T01320106  RH  084%=      5-min Rain = 0
KSB1 100639Z 24005KT 13/11 A302 RMK A01 T01330107  RH  084%=      5-min Rain = 0
KSB1 100640Z 24004KT 13/11 A302 RMK A01 T01340107  RH  084%=      5-min Rain = 0
KSB1 100641Z 24004KT 13/11 A302 RMK A01 T01340107  RH  083%=      5-min Rain = 0
KSB1 100642Z 24004KT 14/11 A302 RMK A01 T01350108  RH  083%=      5-min Rain = 0
KSB1 100643Z 23004KT 14/11 A302 RMK A01 T01360108  RH  083%=      5-min Rain = 0
KSB1 100644Z 23004KT 14/11 A302 RMK A01 T01370108  RH  083%=      5-min Rain = 0
KSB1 100645Z 23004KT 14/11 A302 RMK A01 T01370108  RH  083%=      5-min Rain = 0
KSB1 100646Z 23004KT 14/11 A302 RMK A01 T01370108  RH  082%=      5-min Rain = 0
KSB1 100647Z 22004KT 14/11 A3019 RMK A01 T01370108  RH  083%=      5-min Rain = 0
KSB1 100648Z 23004KT 14/11 A302 RMK A01 T01380109  RH  083%=      5-min Rain = 0
KSB1 100649Z 23004KT 14/11 A302 RMK A01 T01380108  RH  082%=      5-min Rain = 0
KSB1 100650Z 23004KT 14/11 A302 RMK A01 T01380109  RH  082%=      5-min Rain = 0
KSB1 100651Z 24004KT 14/11 A302 RMK A01 T01380109  RH  082%=      5-min Rain = 0
KSB1 100652Z 24004KT 14/11 A302 RMK A01 T01380109  RH  082%=      5-min Rain = 0
KSB1 100653Z 24003KT 14/11 A302 RMK A01 T01380109  RH  082%=      5-min Rain = 0
KSB1 100654Z 24004KT 14/11 A302 RMK A01 T01390109  RH  082%=      5-min Rain = 0
KSB1 100655Z 23004KT 14/11 A302 RMK A01 T01390109  RH  082%=      5-min Rain = 0
KSB1 100656Z 23004KT 14/11 A302 RMK A01 T01390110  RH  082%=      5-min Rain = 0
KSB1 100657Z 23004KT 14/11 A302 RMK A01 T01400110  RH  082%=      5-min Rain = 0
KSB1 100658Z 22005KT 14/11 A302 RMK A01 T01400110  RH  082%=      5-min Rain = 0
KSB1 100659Z 22005KT 14/11 A302 RMK A01 T01410110  RH  082%=      5-min Rain = 0
KSB1 100700Z 22006KT 14/11 A302 RMK A01 T01400109  RH  082%=      5-min Rain = 0
KSB1 100701Z 22006KT 14/11 A3019 RMK A01 T01390108  RH  082%=      5-min Rain = 0
KSB1 100702Z 21006KT 14/11 A3019 RMK A01 T01380107  RH  082%=      5-min Rain = 0
KSB1 100703Z 21006KT 14/11 A3019 RMK A01 T01360106  RH  082%=      5-min Rain = 0
KSB1 100704Z 21006KT 13/11 A3019 RMK A01 T01340106  RH  083%=      5-min Rain = 0
KSB1 100705Z 21006KT 13/11 A3019 RMK A01 T01340107  RH  084%=      5-min Rain = 0
KSB1 100706Z 22005KT 13/11 A3019 RMK A01 T01340107  RH  084%=      5-min Rain = 0
KSB1 100707Z 22005KT 13/11 A3019 RMK A01 T01340107  RH  084%=      5-min Rain = 0
KSB1 100708Z 22005KT 13/11 A3019 RMK A01 T01340107  RH  084%=      5-min Rain = 0
KSB1 100709Z 22005KT 14/11 A3019 RMK A01 T01350108  RH  084%=      5-min Rain = 0
KSB1 100710Z 22004KT 14/11 A3019 RMK A01 T01360109  RH  084%=      5-min Rain = 0
KSB1 100711Z 22004KT 14/11 A3019 RMK A01 T01370109  RH  083%=      5-min Rain = 0
KSB1 100712Z 23004KT 14/11 A3019 RMK A01 T01380110  RH  083%=      5-min Rain = 0
KSB1 100713Z 22004KT 14/11 A3019 RMK A01 T01390110  RH  083%=      5-min Rain = 0
KSB1 100714Z 23004KT 14/11 A3019 RMK A01 T01390109  RH  082%=      5-min Rain = 0
KSB1 100715Z 22004KT 14/11 A3019 RMK A01 T01390109  RH  082%=      5-min Rain = 0
KSB1 100716Z 23004KT 14/11 A3019 RMK A01 T01390109  RH  082%=      5-min Rain = 0
KSB1 100717Z 23005KT 14/11 A3019 RMK A01 T01380108  RH  082%=      5-min Rain = 0
KSB1 100718Z 23005KT 14/11 A3019 RMK A01 T01370108  RH  083%=      5-min Rain = 0
KSB1 100719Z 23006KT 14/11 A3019 RMK A01 T01350108  RH  083%=      5-min Rain = 0
KSB1 100720Z 23006KT 14/11 A3019 RMK A01 T01350108  RH  084%=      5-min Rain = 0
KSB1 100721Z 23006KT 13/11 A3019 RMK A01 T01340108  RH  084%=      5-min Rain = 0
KSB1 100722Z 23006KT 13/11 A3019 RMK A01 T01340108  RH  084%=      5-min Rain = 0
KSB1 100723Z 23007KT 13/11 A3019 RMK A01 T01330107  RH  084%=      5-min Rain = 0
KSB1 100724Z 23007KT 13/11 A3019 RMK A01 T01330107  RH  084%=      5-min Rain = 0
KSB1 100725Z 23006KT 13/11 A3019 RMK A01 T01320107  RH  085%=      5-min Rain = 0
KSB1 100726Z 23007KT 13/11 A3019 RMK A01 T01320107  RH  085%=      5-min Rain = 0
KSB1 100727Z 23007KT 13/11 A3019 RMK A01 T01320107  RH  085%=      5-min Rain = 0
KSB1 100728Z 23007KT 13/11 A3019 RMK A01 T01320107  RH  085%=      5-min Rain = 0
KSB1 100729Z 22007KT 13/11 A3019 RMK A01 T01310106  RH  085%=      5-min Rain = 0
KSB1 100730Z 22007KT 13/11 A3019 RMK A01 T01300106  RH  085%=      5-min Rain = 0
KSB1 100731Z 22007KT 13/11 A3019 RMK A01 T01300106  RH  085%=      5-min Rain = 0
KSB1 100732Z 22007KT 13/11 A3019 RMK A01 T01290106  RH  086%=      5-min Rain = 0
KSB1 100733Z 22007KT 13/11 A3019 RMK A01 T01290105  RH  086%=      5-min Rain = 0
KSB1 100734Z 22007KT 13/11 A3019 RMK A01 T01280105  RH  086%=      5-min Rain = 0
KSB1 100735Z 22007KT 13/11 A3019 RMK A01 T01280105  RH  086%=      5-min Rain = 0
KSB1 100736Z 22007KT 13/11 A3019 RMK A01 T01270105  RH  086%=      5-min Rain = 0
KSB1 100737Z 23007KT 13/11 A3019 RMK A01 T01270105  RH  086%=      5-min Rain = 0
KSB1 100738Z 22007KT 13/11 A3019 RMK A01 T01270105  RH  086%=      5-min Rain = 0
KSB1 100739Z 23007KT 13/11 A3019 RMK A01 T01280106  RH  087%=      5-min Rain = 0
KSB1 100740Z 23007KT 13/11 A3019 RMK A01 T01290107  RH  086%=      5-min Rain = 0
KSB1 100741Z 23006KT 13/11 A3019 RMK A01 T01290107  RH  086%=      5-min Rain = 0
KSB1 100742Z 23007KT 13/11 A3019 RMK A01 T01300107  RH  086%=      5-min Rain = 0
KSB1 100743Z 23007KT 13/11 A3019 RMK A01 T01300107  RH  086%=      5-min Rain = 0
KSB1 100744Z 23007KT 13/11 A3019 RMK A01 T01300107  RH  086%=      5-min Rain = 0
KSB1 100745Z 23007KT 13/11 A3019 RMK A01 T01300107  RH  086%=      5-min Rain = 0
KSB1 100746Z 23007KT 13/11 A3019 RMK A01 T01300107  RH  086%=      5-min Rain = 0
KSB1 100747Z 23007KT 13/11 A3019 RMK A01 T01300107  RH  086%=      5-min Rain = 0
KSB1 100748Z 22006KT 13/11 A3019 RMK A01 T01300108  RH  086%=      5-min Rain = 0
KSB1 100749Z 22006KT 13/11 A3019 RMK A01 T01310108  RH  086%=      5-min Rain = 0
KSB1 100750Z 22006KT 13/11 A3019 RMK A01 T01310108  RH  086%=      5-min Rain = 0
KSB1 100751Z 22006KT 13/11 A3019 RMK A01 T01310107  RH  086%=      5-min Rain = 0
KSB1 100752Z 21006KT 13/11 A3018 RMK A01 T01310108  RH  086%=      5-min Rain = 0
KSB1 100753Z 21006KT 13/11 A3018 RMK A01 T01320108  RH  086%=      5-min Rain = 0
KSB1 100754Z 21006KT 13/11 A3018 RMK A01 T01320108  RH  085%=      5-min Rain = 0
KSB1 100755Z 22006KT 13/11 A3018 RMK A01 T01330109  RH  085%=      5-min Rain = 0
KSB1 100756Z 22006KT 13/11 A3018 RMK A01 T01330108  RH  085%=      5-min Rain = 0
KSB1 100757Z 22006KT 13/11 A3018 RMK A01 T01340108  RH  085%=      5-min Rain = 0
KSB1 100758Z 22006KT 13/11 A3018 RMK A01 T01340108  RH  085%=      5-min Rain = 0
KSB1 100759Z 22006KT 13/11 A3018 RMK A01 T01340108  RH  085%=      5-min Rain = 0
KSB1 100800Z 22006KT 13/11 A3018 RMK A01 T01330108  RH  085%=      5-min Rain = 0
KSB1 100801Z 22006KT 13/11 A3018 RMK A01 T01330108  RH  085%=      5-min Rain = 0
KSB1 100802Z 22006KT 13/11 A3018 RMK A01 T01320108  RH  085%=      5-min Rain = 0
KSB1 100803Z 22005KT 13/11 A3018 RMK A01 T01320108  RH  085%=      5-min Rain = 0
KSB1 100804Z 22005KT 13/11 A3018 RMK A01 T01320108  RH  085%=      5-min Rain = 0
KSB1 100805Z 23005KT 13/11 A3018 RMK A01 T01320108  RH  085%=      5-min Rain = 0
KSB1 100806Z 23005KT 13/11 A3018 RMK A01 T01320108  RH  085%=      5-min Rain = 0
KSB1 100807Z 23006KT 13/11 A3018 RMK A01 T01320108  RH  085%=      5-min Rain = 0
KSB1 100808Z 23006KT 13/11 A3018 RMK A01 T01320108  RH  085%=      5-min Rain = 0
KSB1 100809Z 23006KT 13/11 A3018 RMK A01 T01310107  RH  085%=      5-min Rain = 0
KSB1 100810Z 23006KT 13/11 A3018 RMK A01 T01300107  RH  086%=      5-min Rain = 0
KSB1 100811Z 23006KT 13/11 A3018 RMK A01 T01300107  RH  086%=      5-min Rain = 0
KSB1 100812Z 23006KT 13/11 A3018 RMK A01 T01290107  RH  086%=      5-min Rain = 0
KSB1 100813Z 23006KT 13/11 A3018 RMK A01 T01290107  RH  087%=      5-min Rain = 0
KSB1 100814Z 23006KT 13/11 A3018 RMK A01 T01290107  RH  087%=      5-min Rain = 0
KSB1 100815Z 23006KT 13/11 A3018 RMK A01 T01290107  RH  087%=      5-min Rain = 0
KSB1 100816Z 23006KT 13/11 A3018 RMK A01 T01280106  RH  086%=      5-min Rain = 0
KSB1 100817Z 23006KT 13/11 A3018 RMK A01 T01270106  RH  087%=      5-min Rain = 0
KSB1 100818Z 23006KT 13/11 A3018 RMK A01 T01270106  RH  087%=      5-min Rain = 0
KSB1 100819Z 23006KT 13/11 A3018 RMK A01 T01270106  RH  087%=      5-min Rain = 0
KSB1 100820Z 23006KT 13/11 A3018 RMK A01 T01260106  RH  088%=      5-min Rain = 0
KSB1 100821Z 23005KT 13/11 A3018 RMK A01 T01270107  RH  088%=      5-min Rain = 0
KSB1 100822Z 24005KT 13/11 A3018 RMK A01 T01280108  RH  087%=      5-min Rain = 0
KSB1 100823Z 24005KT 13/11 A3018 RMK A01 T01290108  RH  087%=      5-min Rain = 0
KSB1 100824Z 24005KT 13/11 A3018 RMK A01 T01300108  RH  087%=      5-min Rain = 0
KSB1 100825Z 24005KT 13/11 A3018 RMK A01 T01310109  RH  086%=      5-min Rain = 0
KSB1 100826Z 24005KT 13/11 A3018 RMK A01 T01310108  RH  086%=      5-min Rain = 0
KSB1 100827Z 25005KT 13/11 A3018 RMK A01 T01310108  RH  086%=      5-min Rain = 0
KSB1 100828Z 25005KT 13/11 A3018 RMK A01 T01310108  RH  086%=      5-min Rain = 0
KSB1 100829Z 25005KT 13/11 A3018 RMK A01 T01320108  RH  086%=      5-min Rain = 0
KSB1 100830Z 25004KT 13/11 A3018 RMK A01 T01320109  RH  086%=      5-min Rain = 0
KSB1 100831Z 25004KT 13/11 A3018 RMK A01 T01330109  RH  086%=      5-min Rain = 0
KSB1 100832Z 25004KT 13/11 A3018 RMK A01 T01340109  RH  085%=      5-min Rain = 0
KSB1 100833Z 24004KT 13/11 A3018 RMK A01 T01340110  RH  085%=      5-min Rain = 0
KSB1 100834Z 25004KT 14/11 A3018 RMK A01 T01350110  RH  085%=      5-min Rain = 0
KSB1 100835Z 25003KT 14/11 A3017 RMK A01 T01350110  RH  084%=      5-min Rain = 0
KSB1 100836Z 25003KT 14/11 A3017 RMK A01 T01350109  RH  084%=      5-min Rain = 0
KSB1 100837Z 25003KT 14/11 A3017 RMK A01 T01350110  RH  084%=      5-min Rain = 0
KSB1 100838Z 25003KT 14/11 A3017 RMK A01 T01350109  RH  085%=      5-min Rain = 0
KSB1 100839Z 26003KT 13/11 A3017 RMK A01 T01340109  RH  085%=      5-min Rain = 0
KSB1 100840Z 26003KT 13/11 A3017 RMK A01 T01340109  RH  085%=      5-min Rain = 0
KSB1 100841Z 26003KT 13/11 A3017 RMK A01 T01340109  RH  085%=      5-min Rain = 0
KSB1 100842Z 26003KT 13/11 A3017 RMK A01 T01340109  RH  085%=      5-min Rain = 0
KSB1 100843Z 26004KT 13/11 A3017 RMK A01 T01340109  RH  085%=      5-min Rain = 0
KSB1 100844Z 27004KT 13/11 A3017 RMK A01 T01340109  RH  085%=      5-min Rain = 0
KSB1 100845Z 27004KT 13/11 A3017 RMK A01 T01340109  RH  085%=      5-min Rain = 0
KSB1 100846Z 27004KT 14/11 A3017 RMK A01 T01350110  RH  085%=      5-min Rain = 0
KSB1 100847Z 28004KT 14/11 A3017 RMK A01 T01350110  RH  084%=      5-min Rain = 0
KSB1 100848Z 28003KT 14/11 A3017 RMK A01 T01350110  RH  084%=      5-min Rain = 0
KSB1 100849Z 27003KT 14/11 A3017 RMK A01 T01360110  RH  084%=      5-min Rain = 0
KSB1 100850Z 27003KT 14/11 A3017 RMK A01 T01360110  RH  084%=      5-min Rain = 0
KSB1 100851Z 27003KT 14/11 A3017 RMK A01 T01370110  RH  084%=      5-min Rain = 0
KSB1 100852Z 28003KT 14/11 A3017 RMK A01 T01380110  RH  084%=      5-min Rain = 0
KSB1 100853Z 27003KT 14/11 A3017 RMK A01 T01380110  RH  083%=      5-min Rain = 0
KSB1 100854Z 27003KT 14/11 A3017 RMK A01 T01390111  RH  083%=      5-min Rain = 0
KSB1 100855Z 26003KT 14/11 A3017 RMK A01 T01400111  RH  083%=      5-min Rain = 0
KSB1 100856Z 26003KT 14/11 A3017 RMK A01 T01400111  RH  083%=      5-min Rain = 0
KSB1 100857Z 26004KT 14/11 A3017 RMK A01 T01400111  RH  082%=      5-min Rain = 0
KSB1 100858Z 26004KT 14/11 A3017 RMK A01 T01410111  RH  082%=      5-min Rain = 0
KSB1 100859Z 26004KT 14/11 A3017 RMK A01 T01400111  RH  082%=      5-min Rain = 0
KSB1 100900Z 26004KT 14/11 A3017 RMK A01 T01400111  RH  082%=      5-min Rain = 0
KSB1 100901Z 26004KT 14/11 A3016 RMK A01 T01400111  RH  083%=      5-min Rain = 0
KSB1 100902Z 26004KT 14/11 A3016 RMK A01 T01400111  RH  083%=      5-min Rain = 0
KSB1 100903Z 26004KT 14/11 A3016 RMK A01 T01400111  RH  083%=      5-min Rain = 0
KSB1 100904Z 26004KT 14/11 A3016 RMK A01 T01410111  RH  082%=      5-min Rain = 0
KSB1 100905Z 26004KT 14/11 A3016 RMK A01 T01410111  RH  082%=      5-min Rain = 0
KSB1 100906Z 26004KT 14/11 A3016 RMK A01 T01410111  RH  082%=      5-min Rain = 0
KSB1 100907Z 26004KT 14/11 A3016 RMK A01 T01410111  RH  082%=      5-min Rain = 0
KSB1 100908Z 27004KT 14/11 A3016 RMK A01 T01410111  RH  082%=      5-min Rain = 0
KSB1 100909Z 27004KT 14/11 A3016 RMK A01 T01410111  RH  082%=      5-min Rain = 0
KSB1 100910Z 27004KT 14/11 A3016 RMK A01 T01410111  RH  082%=      5-min Rain = 0
KSB1 100911Z 27004KT 14/11 A3016 RMK A01 T01410111  RH  082%=      5-min Rain = 0
KSB1 100912Z 27004KT 14/11 A3016 RMK A01 T01410111  RH  082%=      5-min Rain = 0
KSB1 100913Z 28004KT 14/11 A3016 RMK A01 T01420111  RH  082%=      5-min Rain = 0
KSB1 100914Z 28004KT 14/11 A3016 RMK A01 T01420111  RH  082%=      5-min Rain = 0
KSB1 100915Z 28005KT 14/11 A3016 RMK A01 T01410111  RH  082%=      5-min Rain = 0
KSB1 100916Z 28005KT 14/11 A3016 RMK A01 T01410111  RH  082%=      5-min Rain = 0
KSB1 100917Z 28005KT 14/11 A3016 RMK A01 T01410111  RH  082%=      5-min Rain = 0
KSB1 100918Z 29005KT 14/11 A3016 RMK A01 T01410111  RH  082%=      5-min Rain = 0
KSB1 100919Z 29005KT 14/11 A3016 RMK A01 T01400111  RH  082%=      5-min Rain = 0
KSB1 100920Z 28004KT 14/11 A3016 RMK A01 T01400111  RH  083%=      5-min Rain = 0
KSB1 100921Z 29004KT 14/11 A3016 RMK A01 T01400112  RH  083%=      5-min Rain = 0
KSB1 100922Z 28004KT 14/11 A3016 RMK A01 T01400111  RH  083%=      5-min Rain = 0
KSB1 100923Z 29004KT 14/11 A3016 RMK A01 T01400111  RH  083%=      5-min Rain = 0
KSB1 100924Z 28004KT 14/11 A3016 RMK A01 T01400111  RH  083%=      5-min Rain = 0
KSB1 100925Z 29003KT 14/11 A3016 RMK A01 T01390109  RH  082%=      5-min Rain = 0
KSB1 100926Z 05001KT 13/10 A3016 RMK A01 T01330097  RH  079%=      5-min Rain = 0
KSB1 100927Z 04002KT 12/09 A3016 RMK A01 T01230092  RH  081%=      5-min Rain = 0
KSB1 100928Z 35001KT 12/09 A3016 RMK A01 T01170091  RH  084%=      5-min Rain = 0
KSB1 100929Z 33001KT 11/09 A3016 RMK A01 T01130090  RH  086%=      5-min Rain = 0
KSB1 100930Z 31000KT 11/09 A3016 RMK A01 T01100090  RH  087%=      5-min Rain = 0
KSB1 100931Z 01000KT 11/09 A3016 RMK A01 T01080089  RH  088%=      5-min Rain = 0
KSB1 100932Z 32001KT 11/09 A3017 RMK A01 T01070092  RH  091%=      5-min Rain = 0
KSB1 100933Z 30002KT 11/10 A3017 RMK A01 T01100100  RH  094%=      5-min Rain = 0
KSB1 100934Z 29002KT 11/11 A3017 RMK A01 T01130105  RH  094%=      5-min Rain = 0
KSB1 100935Z 29002KT 12/11 A3017 RMK A01 T01170107  RH  094%=      5-min Rain = 0
KSB1 100936Z 30001KT 12/11 A3017 RMK A01 T01200108  RH  092%=      5-min Rain = 0
KSB1 100937Z 30000KT 12/11 A3017 RMK A01 T01220105  RH  090%=      5-min Rain = 0
KSB1 100938Z 08000KT 12/10 A3017 RMK A01 T01220102  RH  087%=      5-min Rain = 0
KSB1 100939Z 06002KT 12/10 A3017 RMK A01 T01200098  RH  087%=      5-min Rain = 0
KSB1 100940Z 05002KT 12/10 A3017 RMK A01 T01170096  RH  087%=      5-min Rain = 0
KSB1 100941Z 05002KT 12/09 A3017 RMK A01 T01150094  RH  087%=      5-min Rain = 0
KSB1 100942Z 05001KT 11/09 A3017 RMK A01 T01120093  RH  088%=      5-min Rain = 0
KSB1 100943Z 03001KT 11/09 A3017 RMK A01 T01110094  RH  089%=      5-min Rain = 0
KSB1 100944Z 01002KT 11/10 A3017 RMK A01 T01110097  RH  091%=      5-min Rain = 0
KSB1 100945Z 01002KT 11/10 A3017 RMK A01 T01120096  RH  090%=      5-min Rain = 0
KSB1 100946Z 00001KT 11/10 A3017 RMK A01 T01140100  RH  091%=      5-min Rain = 0
KSB1 100947Z 34001KT 12/10 A3017 RMK A01 T01150101  RH  091%=      5-min Rain = 0
KSB1 100948Z 24000KT 12/10 A3017 RMK A01 T01180104  RH  091%=      5-min Rain = 0
KSB1 100949Z 25001KT 12/11 A3017 RMK A01 T01200106  RH  091%=      5-min Rain = 0
KSB1 100950Z 23001KT 12/11 A3017 RMK A01 T01220108  RH  091%=      5-min Rain = 0
KSB1 100951Z 25001KT 12/11 A3017 RMK A01 T01240109  RH  090%=      5-min Rain = 0
KSB1 100952Z 23000KT 13/11 A3017 RMK A01 T01260109  RH  090%=      5-min Rain = 0
KSB1 100953Z 23001KT 13/11 A3017 RMK A01 T01260109  RH  089%=      5-min Rain = 0
KSB1 100954Z 23002KT 13/11 A3017 RMK A01 T01280110  RH  089%=      5-min Rain = 0
KSB1 100955Z 23002KT 13/11 A3017 RMK A01 T01290109  RH  088%=      5-min Rain = 0
KSB1 100956Z 22002KT 13/11 A3017 RMK A01 T01290108  RH  087%=      5-min Rain = 0
KSB1 100957Z 24001KT 13/11 A3017 RMK A01 T01280105  RH  086%=      5-min Rain = 0
KSB1 100958Z 23001KT 13/11 A3017 RMK A01 T01280106  RH  087%=      5-min Rain = 0
KSB1 100959Z 24001KT 13/11 A3017 RMK A01 T01270106  RH  087%=      5-min Rain = 0
KSB1 101000Z 25001KT 13/11 A3017 RMK A01 T01270106  RH  087%=      5-min Rain = 0
KSB1 101001Z 28001KT 13/11 A3017 RMK A01 T01270107  RH  088%=      5-min Rain = 0
KSB1 101002Z 29001KT 13/11 A3017 RMK A01 T01270107  RH  088%=      5-min Rain = 0
KSB1 101003Z 29001KT 13/11 A3017 RMK A01 T01270108  RH  088%=      5-min Rain = 0
KSB1 101004Z 29000KT 13/11 A3017 RMK A01 T01270108  RH  088%=      5-min Rain = 0
KSB1 101005Z 00000KT 13/11 A3017 RMK A01 T01280109  RH  088%=      5-min Rain = 0
KSB1 101006Z 28000KT 13/11 A3017 RMK A01 T01280108  RH  087%=      5-min Rain = 0
KSB1 101007Z 25001KT 13/11 A3017 RMK A01 T01280108  RH  087%=      5-min Rain = 0
KSB1 101008Z 25000KT 13/11 A3017 RMK A01 T01280106  RH  087%=      5-min Rain = 0
KSB1 101009Z 00000KT 13/11 A3017 RMK A01 T01280107  RH  087%=      5-min Rain = 0
KSB1 101010Z 25000KT 13/11 A3017 RMK A01 T01280108  RH  087%=      5-min Rain = 0
KSB1 101011Z 25000KT 13/11 A3017 RMK A01 T01280107  RH  087%=      5-min Rain = 0
KSB1 101012Z 31001KT 13/11 A3017 RMK A01 T01280107  RH  087%=      5-min Rain = 0
KSB1 101013Z 33001KT 13/11 A3017 RMK A01 T01280107  RH  087%=      5-min Rain = 0
KSB1 101014Z 34001KT 13/11 A3017 RMK A01 T01280106  RH  086%=      5-min Rain = 0
KSB1 101015Z 34002KT 13/10 A3017 RMK A01 T01250103  RH  086%=      5-min Rain = 0
KSB1 101016Z 33003KT 12/10 A3017 RMK A01 T01240104  RH  088%=      5-min Rain = 0
KSB1 101017Z 34003KT 12/11 A3017 RMK A01 T01230105  RH  088%=      5-min Rain = 0
KSB1 101018Z 35003KT 12/11 A3017 RMK A01 T01230105  RH  088%=      5-min Rain = 0
KSB1 101019Z 35003KT 12/11 A3017 RMK A01 T01240105  RH  088%=      5-min Rain = 0
KSB1 101020Z 34003KT 12/11 A3017 RMK A01 T01240105  RH  088%=      5-min Rain = 0
KSB1 101021Z 34003KT 13/11 A3017 RMK A01 T01250106  RH  088%=      5-min Rain = 0
KSB1 101022Z 34003KT 13/11 A3017 RMK A01 T01260107  RH  088%=      5-min Rain = 0
KSB1 101023Z 33003KT 13/11 A3017 RMK A01 T01260107  RH  088%=      5-min Rain = 0
KSB1 101024Z 34003KT 13/11 A3017 RMK A01 T01270107  RH  087%=      5-min Rain = 0
KSB1 101025Z 34003KT 13/11 A3017 RMK A01 T01270107  RH  087%=      5-min Rain = 0
KSB1 101026Z 34003KT 13/11 A3017 RMK A01 T01280107  RH  087%=      5-min Rain = 0
KSB1 101027Z 35003KT 13/11 A3017 RMK A01 T01290107  RH  087%=      5-min Rain = 0
KSB1 101028Z 34003KT 13/11 A3017 RMK A01 T01290108  RH  087%=      5-min Rain = 0
KSB1 101029Z 34003KT 13/11 A3017 RMK A01 T01290107  RH  087%=      5-min Rain = 0
KSB1 101030Z 34004KT 13/11 A3017 RMK A01 T01290107  RH  087%=      5-min Rain = 0
KSB1 101031Z 34004KT 13/11 A3017 RMK A01 T01300108  RH  087%=      5-min Rain = 0
KSB1 101032Z 34004KT 13/11 A3017 RMK A01 T01300108  RH  087%=      5-min Rain = 0
KSB1 101033Z 34004KT 13/11 A3017 RMK A01 T01300108  RH  086%=      5-min Rain = 0
KSB1 101034Z 33003KT 13/11 A3017 RMK A01 T01300108  RH  086%=      5-min Rain = 0
KSB1 101035Z 32003KT 13/11 A3017 RMK A01 T01300108  RH  086%=      5-min Rain = 0
KSB1 101036Z 33003KT 13/11 A3017 RMK A01 T01310109  RH  086%=      5-min Rain = 0
KSB1 101037Z 32003KT 13/11 A3017 RMK A01 T01320109  RH  086%=      5-min Rain = 0
KSB1 101038Z 31002KT 13/11 A3017 RMK A01 T01330110  RH  086%=      5-min Rain = 0
KSB1 101039Z 30002KT 13/11 A3017 RMK A01 T01340110  RH  086%=      5-min Rain = 0
KSB1 101040Z 29001KT 14/11 A3017 RMK A01 T01350111  RH  085%=      5-min Rain = 0
KSB1 101041Z 28001KT 14/11 A3017 RMK A01 T01360111  RH  085%=      5-min Rain = 0
KSB1 101042Z 29001KT 14/11 A3017 RMK A01 T01370111  RH  084%=      5-min Rain = 0
KSB1 101043Z 28001KT 14/11 A3017 RMK A01 T01370111  RH  084%=      5-min Rain = 0
KSB1 101044Z 27001KT 14/11 A3017 RMK A01 T01380111  RH  084%=      5-min Rain = 0
KSB1 101045Z 27001KT 14/11 A3017 RMK A01 T01390112  RH  084%=      5-min Rain = 0
KSB1 101046Z 26001KT 14/11 A3017 RMK A01 T01400112  RH  083%=      5-min Rain = 0
KSB1 101047Z 27001KT 14/11 A3017 RMK A01 T01410112  RH  083%=      5-min Rain = 0
KSB1 101048Z 27001KT 14/11 A3017 RMK A01 T01410112  RH  083%=      5-min Rain = 0
KSB1 101049Z 27001KT 14/11 A3017 RMK A01 T01410112  RH  083%=      5-min Rain = 0
KSB1 101050Z 27001KT 14/11 A3017 RMK A01 T01410112  RH  082%=      5-min Rain = 0
KSB1 101051Z 29000KT 14/11 A3017 RMK A01 T01410112  RH  082%=      5-min Rain = 0
KSB1 101052Z 31000KT 14/11 A3017 RMK A01 T01420112  RH  083%=      5-min Rain = 0
KSB1 101053Z 31000KT 14/11 A3017 RMK A01 T01410112  RH  082%=      5-min Rain = 0
KSB1 101054Z 00000KT 14/11 A3017 RMK A01 T01420112  RH  082%=      5-min Rain = 0
KSB1 101055Z 01001KT 14/11 A3017 RMK A01 T01420112  RH  082%=      5-min Rain = 0
KSB1 101056Z 01001KT 14/11 A3017 RMK A01 T01420111  RH  082%=      5-min Rain = 0
KSB1 101057Z 35002KT 14/11 A3017 RMK A01 T01420111  RH  082%=      5-min Rain = 0
KSB1 101058Z 00001KT 14/11 A3017 RMK A01 T01410110  RH  082%=      5-min Rain = 0
KSB1 101059Z 01001KT 14/11 A3017 RMK A01 T01380109  RH  083%=      5-min Rain = 0
KSB1 101100Z 01001KT 14/11 A3017 RMK A01 T01360109  RH  084%=      5-min Rain = 0
KSB1 101101Z 01001KT 13/11 A3017 RMK A01 T01340109  RH  085%=      5-min Rain = 0
KSB1 101102Z 01000KT 13/11 A3017 RMK A01 T01340110  RH  085%=      5-min Rain = 0
KSB1 101103Z 00000KT 14/11 A3017 RMK A01 T01350111  RH  085%=      5-min Rain = 0
KSB1 101104Z 00000KT 14/11 A3017 RMK A01 T01360111  RH  085%=      5-min Rain = 0
KSB1 101105Z 00000KT 14/11 A3017 RMK A01 T01370112  RH  084%=      5-min Rain = 0
KSB1 101106Z 01000KT 14/11 A3017 RMK A01 T01380112  RH  084%=      5-min Rain = 0
KSB1 101107Z 01001KT 14/11 A3017 RMK A01 T01390112  RH  084%=      5-min Rain = 0
KSB1 101108Z 01001KT 14/11 A3017 RMK A01 T01400112  RH  084%=      5-min Rain = 0
KSB1 101109Z 01001KT 14/11 A3017 RMK A01 T01400112  RH  083%=      5-min Rain = 0
KSB1 101110Z 01001KT 14/11 A3016 RMK A01 T01400112  RH  083%=      5-min Rain = 0
KSB1 101111Z 17001KT 14/11 A3016 RMK A01 T01410113  RH  083%=      5-min Rain = 0
KSB1 101112Z 17001KT 14/11 A3016 RMK A01 T01410112  RH  083%=      5-min Rain = 0
KSB1 101113Z 17002KT 14/11 A3016 RMK A01 T01390108  RH  082%=      5-min Rain = 0
KSB1 101114Z 17002KT 13/10 A3016 RMK A01 T01330101  RH  081%=      5-min Rain = 0
KSB1 101115Z 18002KT 13/10 A3016 RMK A01 T01280101  RH  083%=      5-min Rain = 0
KSB1 101116Z 19002KT 13/10 A3017 RMK A01 T01250101  RH  085%=      5-min Rain = 0
KSB1 101117Z 19002KT 12/10 A3017 RMK A01 T01220100  RH  087%=      5-min Rain = 0
KSB1 101118Z 19002KT 12/10 A3017 RMK A01 T01190101  RH  088%=      5-min Rain = 0
KSB1 101119Z 19003KT 12/10 A3017 RMK A01 T01180101  RH  089%=      5-min Rain = 0
KSB1 101120Z 20003KT 12/10 A3017 RMK A01 T01160101  RH  090%=      5-min Rain = 0
KSB1 101121Z 20003KT 12/10 A3017 RMK A01 T01150100  RH  090%=      5-min Rain = 0
KSB1 101122Z 21003KT 12/10 A3017 RMK A01 T01150101  RH  091%=      5-min Rain = 0
KSB1 101123Z 21003KT 11/10 A3017 RMK A01 T01140102  RH  092%=      5-min Rain = 0
KSB1 101124Z 22003KT 12/10 A3017 RMK A01 T01150103  RH  092%=      5-min Rain = 0
KSB1 101125Z 23003KT 12/10 A3017 RMK A01 T01150102  RH  092%=      5-min Rain = 0
KSB1 101126Z 23003KT 12/10 A3017 RMK A01 T01150103  RH  092%=      5-min Rain = 0
KSB1 101127Z 23003KT 12/11 A3017 RMK A01 T01170105  RH  093%=      5-min Rain = 0
KSB1 101128Z 24002KT 12/11 A3017 RMK A01 T01180107  RH  093%=      5-min Rain = 0
KSB1 101129Z 24002KT 12/11 A3017 RMK A01 T01200108  RH  092%=      5-min Rain = 0
KSB1 101130Z 24002KT 12/11 A3017 RMK A01 T01220110  RH  092%=      5-min Rain = 0
KSB1 101131Z 25002KT 13/11 A3017 RMK A01 T01250111  RH  091%=      5-min Rain = 0
KSB1 101132Z 25003KT 13/11 A3017 RMK A01 T01270112  RH  090%=      5-min Rain = 0
KSB1 101133Z 25003KT 13/11 A3017 RMK A01 T01300112  RH  089%=      5-min Rain = 0
KSB1 101134Z 24003KT 13/11 A3017 RMK A01 T01310111  RH  088%=      5-min Rain = 0
KSB1 101135Z 24003KT 13/11 A3017 RMK A01 T01320111  RH  087%=      5-min Rain = 0
KSB1 101136Z 24003KT 13/11 A3017 RMK A01 T01330112  RH  087%=      5-min Rain = 0
KSB1 101137Z 25003KT 13/11 A3017 RMK A01 T01340111  RH  086%=      5-min Rain = 0
KSB1 101138Z 25003KT 13/11 A3017 RMK A01 T01340111  RH  086%=      5-min Rain = 0
KSB1 101139Z 25003KT 13/11 A3017 RMK A01 T01340111  RH  086%=      5-min Rain = 0
KSB1 101140Z 25002KT 13/11 A3017 RMK A01 T01340111  RH  086%=      5-min Rain = 0
KSB1 101141Z 25002KT 14/11 A3017 RMK A01 T01350112  RH  086%=      5-min Rain = 0
KSB1 101142Z 25002KT 14/11 A3017 RMK A01 T01360111  RH  085%=      5-min Rain = 0
KSB1 101143Z 25002KT 14/11 A3017 RMK A01 T01360112  RH  085%=      5-min Rain = 0
KSB1 101144Z 24002KT 14/11 A3017 RMK A01 T01370112  RH  085%=      5-min Rain = 0
KSB1 101145Z 23003KT 14/11 A3017 RMK A01 T01370112  RH  085%=      5-min Rain = 0
KSB1 101146Z 23003KT 14/11 A3017 RMK A01 T01370112  RH  085%=      5-min Rain = 0
KSB1 101147Z 23003KT 14/11 A3017 RMK A01 T01380112  RH  084%=      5-min Rain = 0
KSB1 101148Z 23003KT 14/11 A3017 RMK A01 T01380112  RH  084%=      5-min Rain = 0
KSB1 101149Z 22003KT 14/11 A3017 RMK A01 T01380112  RH  084%=      5-min Rain = 0
KSB1 101150Z 22003KT 14/11 A3017 RMK A01 T01380112  RH  084%=      5-min Rain = 0
KSB1 101151Z 21003KT 14/11 A3017 RMK A01 T01380111  RH  084%=      5-min Rain = 0
KSB1 101152Z 21003KT 14/11 A3017 RMK A01 T01370110  RH  084%=      5-min Rain = 0
KSB1 101153Z 21003KT 14/11 A3017 RMK A01 T01360110  RH  085%=      5-min Rain = 0
KSB1 101154Z 22003KT 14/11 A3017 RMK A01 T01360111  RH  085%=      5-min Rain = 0
KSB1 101155Z 21003KT 13/11 A3016 RMK A01 T01340109  RH  085%=      5-min Rain = 0
KSB1 101156Z 21003KT 13/11 A3016 RMK A01 T01320108  RH  085%=      5-min Rain = 0
KSB1 101157Z 22003KT 13/11 A3016 RMK A01 T01310108  RH  086%=      5-min Rain = 0
KSB1 101158Z 21003KT 13/11 A3016 RMK A01 T01300108  RH  087%=      5-min Rain = 0
KSB1 101159Z 22003KT 13/11 A3016 RMK A01 T01300109  RH  087%=      5-min Rain = 0
KSB1 101200Z 22003KT 13/11 A3017 RMK A01 T01290108  RH  087%=      5-min Rain = 0
KSB1 101201Z 22003KT 13/11 A3017 RMK A01 T01270107  RH  087%=      5-min Rain = 0
KSB1 101202Z 22003KT 13/11 A3017 RMK A01 T01260107  RH  088%=      5-min Rain = 0
KSB1 101203Z 22003KT 13/11 A3017 RMK A01 T01260107  RH  089%=      5-min Rain = 0
KSB1 101204Z 22003KT 13/11 A3017 RMK A01 T01260108  RH  089%=      5-min Rain = 0
KSB1 101205Z 22003KT 13/11 A3017 RMK A01 T01250107  RH  089%=      5-min Rain = 0
KSB1 101206Z 22002KT 13/11 A3017 RMK A01 T01250108  RH  089%=      5-min Rain = 0
KSB1 101207Z 22002KT 13/11 A3017 RMK A01 T01250108  RH  089%=      5-min Rain = 0
KSB1 101208Z 22002KT 13/11 A3017 RMK A01 T01250109  RH  090%=      5-min Rain = 0
KSB1 101209Z 22002KT 13/11 A3017 RMK A01 T01260109  RH  090%=      5-min Rain = 0
KSB1 101210Z 22002KT 13/11 A3017 RMK A01 T01260109  RH  089%=      5-min Rain = 0
KSB1 101211Z 23001KT 13/11 A3017 RMK A01 T01270110  RH  089%=      5-min Rain = 0
KSB1 101212Z 23001KT 13/11 A3017 RMK A01 T01280110  RH  089%=      5-min Rain = 0
KSB1 101213Z 23001KT 13/11 A3017 RMK A01 T01290110  RH  089%=      5-min Rain = 0
KSB1 101214Z 23001KT 13/11 A3017 RMK A01 T01300111  RH  088%=      5-min Rain = 0
KSB1 101215Z 23000KT 13/11 A3017 RMK A01 T01300111  RH  088%=      5-min Rain = 0
KSB1 101216Z 23000KT 13/11 A3017 RMK A01 T01310111  RH  088%=      5-min Rain = 0
KSB1 101217Z 23001KT 13/11 A3017 RMK A01 T01310111  RH  087%=      5-min Rain = 0
KSB1 101218Z 19001KT 13/11 A3017 RMK A01 T01320111  RH  087%=      5-min Rain = 0
KSB1 101219Z 19001KT 13/11 A3017 RMK A01 T01320111  RH  087%=      5-min Rain = 0
KSB1 101220Z 21000KT 13/11 A3017 RMK A01 T01330111  RH  087%=      5-min Rain = 0
KSB1 101221Z 00000KT 13/11 A3017 RMK A01 T01330111  RH  086%=      5-min Rain = 0
KSB1 101222Z 00000KT 13/11 A3017 RMK A01 T01330111  RH  086%=      5-min Rain = 0
KSB1 101223Z 19000KT 13/11 A3017 RMK A01 T01330110  RH  086%=      5-min Rain = 0
KSB1 101224Z 19000KT 13/11 A3017 RMK A01 T01330110  RH  086%=      5-min Rain = 0
KSB1 101225Z 00000KT 13/11 A3017 RMK A01 T01330111  RH  087%=      5-min Rain = 0
KSB1 101226Z 00000KT 13/11 A3017 RMK A01 T01330111  RH  087%=      5-min Rain = 0
KSB1 101227Z 11001KT 13/11 A3017 RMK A01 T01330111  RH  087%=      5-min Rain = 0
KSB1 101228Z 12001KT 13/11 A3017 RMK A01 T01330111  RH  087%=      5-min Rain = 0
KSB1 101229Z 11001KT 13/11 A3017 RMK A01 T01330111  RH  086%=      5-min Rain = 0
KSB1 101230Z 11002KT 13/11 A3017 RMK A01 T01330111  RH  086%=      5-min Rain = 0
KSB1 101231Z 12002KT 13/11 A3017 RMK A01 T01330111  RH  087%=      5-min Rain = 0
KSB1 101232Z 13001KT 13/11 A3017 RMK A01 T01330111  RH  087%=      5-min Rain = 0
KSB1 101233Z 15002KT 13/11 A3017 RMK A01 T01330111  RH  086%=      5-min Rain = 0
KSB1 101234Z 17002KT 13/11 A3018 RMK A01 T01340111  RH  086%=      5-min Rain = 0
KSB1 101235Z 17001KT 13/11 A3017 RMK A01 T01340111  RH  086%=      5-min Rain = 0
KSB1 101236Z 15002KT 13/11 A3017 RMK A01 T01340111  RH  086%=      5-min Rain = 0
KSB1 101237Z 14002KT 13/11 A3017 RMK A01 T01340111  RH  086%=      5-min Rain = 0
KSB1 101238Z 13002KT 13/11 A3017 RMK A01 T01340111  RH  086%=      5-min Rain = 0
KSB1 101239Z 12002KT 14/11 A3017 RMK A01 T01350110  RH  085%=      5-min Rain = 0
KSB1 101240Z 07002KT 13/10 A3017 RMK A01 T01310101  RH  082%=      5-min Rain = 0
KSB1 101241Z 06001KT 12/10 A3017 RMK A01 T01240098  RH  084%=      5-min Rain = 0
KSB1 101242Z 06000KT 12/10 A3017 RMK A01 T01210101  RH  088%=      5-min Rain = 0
KSB1 101243Z 16000KT 12/10 A3017 RMK A01 T01190103  RH  090%=      5-min Rain = 0
KSB1 101244Z 15001KT 12/11 A3017 RMK A01 T01200105  RH  091%=      5-min Rain = 0
KSB1 101245Z 15001KT 12/11 A3017 RMK A01 T01200106  RH  091%=      5-min Rain = 0
KSB1 101246Z 15000KT 12/11 A3017 RMK A01 T01220107  RH  091%=      5-min Rain = 0
KSB1 101247Z 00000KT 12/11 A3017 RMK A01 T01230107  RH  090%=      5-min Rain = 0
KSB1 101248Z 08000KT 12/11 A3017 RMK A01 T01230106  RH  089%=      5-min Rain = 0
KSB1 101249Z 12000KT 12/11 A3017 RMK A01 T01230107  RH  089%=      5-min Rain = 0
KSB1 101250Z 08000KT 12/11 A3017 RMK A01 T01240107  RH  090%=      5-min Rain = 0
KSB1 101251Z 00000KT 12/11 A3018 RMK A01 T01240108  RH  089%=      5-min Rain = 0
KSB1 101252Z 15000KT 13/11 A3018 RMK A01 T01250108  RH  089%=      5-min Rain = 0
KSB1 101253Z 18000KT 13/11 A3018 RMK A01 T01250108  RH  089%=      5-min Rain = 0
KSB1 101254Z 21001KT 13/11 A3018 RMK A01 T01250108  RH  089%=      5-min Rain = 0
KSB1 101255Z 22001KT 13/11 A3018 RMK A01 T01260108  RH  089%=      5-min Rain = 0
KSB1 101256Z 21001KT 13/11 A3018 RMK A01 T01270109  RH  089%=      5-min Rain = 0
KSB1 101257Z 21001KT 13/11 A3018 RMK A01 T01260108  RH  089%=      5-min Rain = 0
KSB1 101258Z 20001KT 13/11 A3017 RMK A01 T01270109  RH  089%=      5-min Rain = 0
KSB1 101259Z 20001KT 13/11 A3017 RMK A01 T01270109  RH  089%=      5-min Rain = 0
KSB1 101300Z 20001KT 13/11 A3017 RMK A01 T01270109  RH  088%=      5-min Rain = 0
KSB1 101301Z 22001KT 13/11 A3017 RMK A01 T01270109  RH  089%=      5-min Rain = 0
KSB1 101302Z 22001KT 13/11 A3017 RMK A01 T01260108  RH  089%=      5-min Rain = 0
KSB1 101303Z 26002KT 13/11 A3017 RMK A01 T01260109  RH  089%=      5-min Rain = 0
KSB1 101304Z 26002KT 13/11 A3017 RMK A01 T01250108  RH  089%=      5-min Rain = 0
KSB1 101305Z 25001KT 13/11 A3017 RMK A01 T01250108  RH  089%=      5-min Rain = 0
KSB1 101306Z 26002KT 13/11 A3017 RMK A01 T01250109  RH  090%=      5-min Rain = 0
KSB1 101307Z 25001KT 13/11 A3017 RMK A01 T01250108  RH  090%=      5-min Rain = 0
KSB1 101308Z 23000KT 13/11 A3017 RMK A01 T01250109  RH  090%=      5-min Rain = 0
KSB1 101309Z 24001KT 13/11 A3017 RMK A01 T01250109  RH  090%=      5-min Rain = 0
KSB1 101310Z 27001KT 13/11 A3017 RMK A01 T01260110  RH  090%=      5-min Rain = 0
KSB1 101311Z 27001KT 13/11 A3017 RMK A01 T01270110  RH  090%=      5-min Rain = 0
KSB1 101312Z 00000KT 13/11 A3017 RMK A01 T01280111  RH  089%=      5-min Rain = 0
KSB1 101313Z 00000KT 13/11 A3017 RMK A01 T01290111  RH  089%=      5-min Rain = 0
KSB1 101314Z 29001KT 13/11 A3017 RMK A01 T01310111  RH  088%=      5-min Rain = 0
KSB1 101315Z 27002KT 13/11 A3017 RMK A01 T01310111  RH  087%=      5-min Rain = 0
KSB1 101316Z 28002KT 13/11 A3017 RMK A01 T01320111  RH  087%=      5-min Rain = 0
KSB1 101317Z 27001KT 13/11 A3017 RMK A01 T01310110  RH  087%=      5-min Rain = 0
KSB1 101318Z 27002KT 13/11 A3017 RMK A01 T01310110  RH  087%=      5-min Rain = 0
KSB1 101319Z 28002KT 13/11 A3017 RMK A01 T01310110  RH  087%=      5-min Rain = 0
KSB1 101320Z 28002KT 13/11 A3017 RMK A01 T01310109  RH  087%=      5-min Rain = 0
KSB1 101321Z 27002KT 13/11 A3017 RMK A01 T01290109  RH  087%=      5-min Rain = 0
KSB1 101322Z 26002KT 13/11 A3017 RMK A01 T01290109  RH  088%=      5-min Rain = 0
KSB1 101323Z 26002KT 13/11 A3017 RMK A01 T01290110  RH  088%=      5-min Rain = 0
KSB1 101324Z 25002KT 13/11 A3017 RMK A01 T01290110  RH  088%=      5-min Rain = 0
KSB1 101325Z 26001KT 13/11 A3017 RMK A01 T01280109  RH  088%=      5-min Rain = 0
KSB1 101326Z 28001KT 13/11 A3017 RMK A01 T01280109  RH  088%=      5-min Rain = 0
KSB1 101327Z 30002KT 13/11 A3017 RMK A01 T01280109  RH  089%=      5-min Rain = 0
KSB1 101328Z 31002KT 13/11 A3017 RMK A01 T01270110  RH  089%=      5-min Rain = 0
KSB1 101329Z 30001KT 13/11 A3017 RMK A01 T01280110  RH  089%=      5-min Rain = 0
KSB1 101330Z 29001KT 13/11 A3017 RMK A01 T01290110  RH  088%=      5-min Rain = 0
KSB1 101331Z 31001KT 13/11 A3017 RMK A01 T01290110  RH  088%=      5-min Rain = 0
KSB1 101332Z 28001KT 13/11 A3017 RMK A01 T01290110  RH  088%=      5-min Rain = 0
KSB1 101333Z 26001KT 13/11 A3017 RMK A01 T01300110  RH  088%=      5-min Rain = 0
KSB1 101334Z 27001KT 13/11 A3017 RMK A01 T01300110  RH  088%=      5-min Rain = 0
KSB1 101335Z 27000KT 13/11 A3017 RMK A01 T01300110  RH  088%=      5-min Rain = 0
KSB1 101336Z 27001KT 13/11 A3017 RMK A01 T01310111  RH  088%=      5-min Rain = 0
KSB1 101337Z 25001KT 13/11 A3017 RMK A01 T01310111  RH  088%=      5-min Rain = 0
KSB1 101338Z 27001KT 13/11 A3017 RMK A01 T01310111  RH  087%=      5-min Rain = 0
KSB1 101339Z 28001KT 13/11 A3017 RMK A01 T01310110  RH  087%=      5-min Rain = 0
KSB1 101340Z 27001KT 13/11 A3017 RMK A01 T01310110  RH  087%=      5-min Rain = 0
KSB1 101341Z 29001KT 13/11 A3017 RMK A01 T01310110  RH  087%=      5-min Rain = 0
KSB1 101342Z 29001KT 13/11 A3017 RMK A01 T01310110  RH  087%=      5-min Rain = 0
KSB1 101343Z 30001KT 13/11 A3017 RMK A01 T01310110  RH  087%=      5-min Rain = 0
KSB1 101344Z 30001KT 13/11 A3017 RMK A01 T01310111  RH  087%=      5-min Rain = 0
KSB1 101345Z 31002KT 13/11 A3017 RMK A01 T01310110  RH  087%=      5-min Rain = 0
KSB1 101346Z 31002KT 13/11 A3017 RMK A01 T01320111  RH  087%=      5-min Rain = 0
KSB1 101347Z 31002KT 13/11 A3017 RMK A01 T01320111  RH  087%=      5-min Rain = 0
KSB1 101348Z 31002KT 13/11 A3017 RMK A01 T01320111  RH  087%=      5-min Rain = 0
KSB1 101349Z 31001KT 13/11 A3017 RMK A01 T01320111  RH  087%=      5-min Rain = 0
KSB1 101350Z 31001KT 13/11 A3017 RMK A01 T01330111  RH  086%=      5-min Rain = 0
KSB1 101351Z 31001KT 13/11 A3017 RMK A01 T01330110  RH  086%=      5-min Rain = 0
KSB1 101352Z 30001KT 13/11 A3017 RMK A01 T01330111  RH  086%=      5-min Rain = 0
KSB1 101353Z 29001KT 13/11 A3017 RMK A01 T01330111  RH  086%=      5-min Rain = 0
KSB1 101354Z 28002KT 13/11 A3017 RMK A01 T01330111  RH  086%=      5-min Rain = 0
KSB1 101355Z 27002KT 13/11 A3017 RMK A01 T01330111  RH  086%=      5-min Rain = 0
KSB1 101356Z 27002KT 13/11 A3017 RMK A01 T01330111  RH  086%=      5-min Rain = 0
KSB1 101357Z 26002KT 13/11 A3017 RMK A01 T01330110  RH  086%=      5-min Rain = 0
KSB1 101358Z 26002KT 13/11 A3017 RMK A01 T01330110  RH  086%=      5-min Rain = 0
KSB1 101359Z 26002KT 13/11 A3017 RMK A01 T01340110  RH  086%=      5-min Rain = 0
KSB1 101400Z 26002KT 13/11 A3017 RMK A01 T01340111  RH  086%=      5-min Rain = 0
KSB1 101401Z 27002KT 13/11 A3017 RMK A01 T01340111  RH  086%=      5-min Rain = 0
KSB1 101402Z 26002KT 13/11 A3017 RMK A01 T01340111  RH  086%=      5-min Rain = 0
KSB1 101403Z 26003KT 13/11 A3017 RMK A01 T01340111  RH  086%=      5-min Rain = 0
KSB1 101404Z 26003KT 13/11 A3017 RMK A01 T01330111  RH  086%=      5-min Rain = 0
KSB1 101405Z 26003KT 13/11 A3017 RMK A01 T01330111  RH  086%=      5-min Rain = 0
KSB1 101406Z 26003KT 13/11 A3017 RMK A01 T01330111  RH  086%=      5-min Rain = 0
KSB1 101407Z 26003KT 13/11 A3017 RMK A01 T01330111  RH  086%=      5-min Rain = 0
KSB1 101408Z 25003KT 13/11 A3017 RMK A01 T01330111  RH  087%=      5-min Rain = 0
KSB1 101409Z 25003KT 13/11 A3017 RMK A01 T01320110  RH  087%=      5-min Rain = 0
KSB1 101410Z 25003KT 13/11 A3017 RMK A01 T01320111  RH  087%=      5-min Rain = 0
KSB1 101411Z 25003KT 13/11 A3017 RMK A01 T01310111  RH  087%=      5-min Rain = 0
KSB1 101412Z 25003KT 13/11 A3017 RMK A01 T01310111  RH  087%=      5-min Rain = 0
KSB1 101413Z 25003KT 13/11 A3017 RMK A01 T01310111  RH  088%=      5-min Rain = 0
KSB1 101414Z 25003KT 13/11 A3017 RMK A01 T01300110  RH  088%=      5-min Rain = 0
KSB1 101415Z 25003KT 13/11 A3017 RMK A01 T01300111  RH  088%=      5-min Rain = 0
KSB1 101416Z 25003KT 13/11 A3017 RMK A01 T01300111  RH  088%=      5-min Rain = 0
KSB1 101417Z 25003KT 13/11 A3017 RMK A01 T01300111  RH  088%=      5-min Rain = 0
KSB1 101418Z 25003KT 13/11 A3017 RMK A01 T01300110  RH  088%=      5-min Rain = 0
KSB1 101419Z 26003KT 13/11 A3017 RMK A01 T01280109  RH  088%=      5-min Rain = 0
KSB1 101420Z 26003KT 13/11 A3018 RMK A01 T01270109  RH  089%=      5-min Rain = 0
KSB1 101421Z 25003KT 13/11 A3018 RMK A01 T01270109  RH  089%=      5-min Rain = 0
KSB1 101422Z 26003KT 13/11 A3018 RMK A01 T01270110  RH  089%=      5-min Rain = 0
KSB1 101423Z 27003KT 13/11 A3018 RMK A01 T01270110  RH  089%=      5-min Rain = 0
KSB1 101424Z 27003KT 13/11 A3018 RMK A01 T01280111  RH  089%=      5-min Rain = 0
KSB1 101425Z 27003KT 13/11 A3018 RMK A01 T01280112  RH  090%=      5-min Rain = 0
KSB1 101426Z 27003KT 13/11 A3018 RMK A01 T01290112  RH  089%=      5-min Rain = 0
KSB1 101427Z 26003KT 13/11 A3018 RMK A01 T01300112  RH  089%=      5-min Rain = 0
KSB1 101428Z 25003KT 13/11 A3018 RMK A01 T01300112  RH  089%=      5-min Rain = 0
KSB1 101429Z 26003KT 13/11 A3018 RMK A01 T01300111  RH  088%=      5-min Rain = 0
KSB1 101430Z 25003KT 13/11 A3018 RMK A01 T01300112  RH  088%=      5-min Rain = 0
KSB1 101431Z 26003KT 13/11 A3018 RMK A01 T01310112  RH  088%=      5-min Rain = 0
KSB1 101432Z 25003KT 13/11 A3018 RMK A01 T01310112  RH  088%=      5-min Rain = 0
KSB1 101433Z 24003KT 13/11 A3018 RMK A01 T01310113  RH  088%=      5-min Rain = 0
KSB1 101434Z 26002KT 13/11 A3018 RMK A01 T01320113  RH  088%=      5-min Rain = 0
KSB1 101435Z 24002KT 13/11 A3018 RMK A01 T01330114  RH  088%=      5-min Rain = 0
KSB1 101436Z 24002KT 13/11 A3018 RMK A01 T01330114  RH  088%=      5-min Rain = 0
KSB1 101437Z 24002KT 13/12 A3018 RMK A01 T01340115  RH  088%=      5-min Rain = 0
KSB1 101438Z 24002KT 13/12 A3018 RMK A01 T01340115  RH  088%=      5-min Rain = 0
KSB1 101439Z 24002KT 14/12 A3018 RMK A01 T01350115  RH  088%=      5-min Rain = 0
KSB1 101440Z 24002KT 14/12 A3018 RMK A01 T01360116  RH  088%=      5-min Rain = 0
KSB1 101441Z 24002KT 14/12 A3018 RMK A01 T01370117  RH  088%=      5-min Rain = 0
KSB1 101442Z 24002KT 14/12 A3018 RMK A01 T01370116  RH  087%=      5-min Rain = 0
KSB1 101443Z 26002KT 14/12 A3018 RMK A01 T01380116  RH  086%=      5-min Rain = 0
KSB1 101444Z 25002KT 14/12 A3018 RMK A01 T01390116  RH  086%=      5-min Rain = 0
KSB1 101445Z 25002KT 14/12 A3018 RMK A01 T01400116  RH  086%=      5-min Rain = 0
KSB1 101446Z 25002KT 14/12 A3018 RMK A01 T01400116  RH  085%=      5-min Rain = 0
KSB1 101447Z 25002KT 14/12 A3018 RMK A01 T01410116  RH  085%=      5-min Rain = 0
KSB1 101448Z 25002KT 14/12 A3018 RMK A01 T01410116  RH  085%=      5-min Rain = 0
KSB1 101449Z 25003KT 14/12 A3018 RMK A01 T01420116  RH  084%=      5-min Rain = 0
KSB1 101450Z 24003KT 14/12 A3018 RMK A01 T01420116  RH  084%=      5-min Rain = 0
KSB1 101451Z 23003KT 14/12 A3018 RMK A01 T01420116  RH  084%=      5-min Rain = 0
KSB1 101452Z 24003KT 14/12 A3018 RMK A01 T01420116  RH  085%=      5-min Rain = 0
KSB1 101453Z 24004KT 14/12 A3018 RMK A01 T01420116  RH  085%=      5-min Rain = 0
KSB1 101454Z 23004KT 14/12 A3018 RMK A01 T01420117  RH  085%=      5-min Rain = 0
KSB1 101455Z 24004KT 14/12 A3018 RMK A01 T01420117  RH  085%=      5-min Rain = 0
KSB1 101456Z 23003KT 14/12 A3018 RMK A01 T01430117  RH  085%=      5-min Rain = 0
KSB1 101457Z 23003KT 14/12 A3018 RMK A01 T01430117  RH  085%=      5-min Rain = 0
KSB1 101458Z 24003KT 14/12 A3018 RMK A01 T01430118  RH  085%=      5-min Rain = 0
KSB1 101459Z 24003KT 14/12 A3018 RMK A01 T01440118  RH  084%=      5-min Rain = 0
KSB1 101500Z 25004KT 14/12 A3018 RMK A01 T01440117  RH  084%=      5-min Rain = 0
KSB1 101501Z 25004KT 14/12 A3018 RMK A01 T01440118  RH  084%=      5-min Rain = 0
KSB1 101502Z 24004KT 15/12 A3018 RMK A01 T01450118  RH  084%=      5-min Rain = 0
KSB1 101503Z 24004KT 15/12 A3018 RMK A01 T01450118  RH  084%=      5-min Rain = 0
KSB1 101504Z 23004KT 15/12 A3018 RMK A01 T01450118  RH  084%=      5-min Rain = 0
KSB1 101505Z 24003KT 15/12 A3018 RMK A01 T01450117  RH  083%=      5-min Rain = 0
KSB1 101506Z 24003KT 15/12 A3018 RMK A01 T01450117  RH  083%=      5-min Rain = 0
KSB1 101507Z 23003KT 15/12 A3018 RMK A01 T01460118  RH  083%=      5-min Rain = 0
KSB1 101508Z 22003KT 15/12 A3018 RMK A01 T01460119  RH  084%=      5-min Rain = 0
KSB1 101509Z 21003KT 15/12 A3018 RMK A01 T01470120  RH  084%=      5-min Rain = 0
KSB1 101510Z 20003KT 15/12 A3018 RMK A01 T01480120  RH  084%=      5-min Rain = 0
KSB1 101511Z 21003KT 15/12 A3018 RMK A01 T01480119  RH  083%=      5-min Rain = 0
KSB1 101512Z 20003KT 15/12 A3018 RMK A01 T01480118  RH  082%=      5-min Rain = 0
KSB1 101513Z 19002KT 15/12 A3018 RMK A01 T01480118  RH  083%=      5-min Rain = 0
KSB1 101514Z 18002KT 15/12 A3018 RMK A01 T01480118  RH  082%=      5-min Rain = 0
KSB1 101515Z 18002KT 15/12 A3018 RMK A01 T01490118  RH  082%=      5-min Rain = 0
KSB1 101516Z 17002KT 15/12 A3018 RMK A01 T01490118  RH  081%=      5-min Rain = 0
KSB1 101517Z 18002KT 15/12 A3018 RMK A01 T01500118  RH  081%=      5-min Rain = 0
KSB1 101518Z 18002KT 15/12 A3018 RMK A01 T01500117  RH  081%=      5-min Rain = 0
KSB1 101519Z 15002KT 15/12 A3018 RMK A01 T01500117  RH  081%=      5-min Rain = 0
KSB1 101520Z 15001KT 15/12 A3018 RMK A01 T01500117  RH  081%=      5-min Rain = 0
KSB1 101521Z 16001KT 15/12 A3018 RMK A01 T01500118  RH  081%=      5-min Rain = 0
KSB1 101522Z 14001KT 15/12 A3018 RMK A01 T01510118  RH  080%=      5-min Rain = 0
KSB1 101523Z 13001KT 15/12 A3019 RMK A01 T01510118  RH  080%=      5-min Rain = 0
KSB1 101524Z 13002KT 15/12 A3019 RMK A01 T01510118  RH  080%=      5-min Rain = 0
KSB1 101525Z 14002KT 15/12 A3019 RMK A01 T01510118  RH  080%=      5-min Rain = 0
KSB1 101526Z 14002KT 15/12 A3019 RMK A01 T01510117  RH  080%=      5-min Rain = 0
KSB1 101527Z 12002KT 15/12 A3019 RMK A01 T01510118  RH  080%=      5-min Rain = 0
KSB1 101528Z 13002KT 15/12 A3019 RMK A01 T01510117  RH  080%=      5-min Rain = 0
KSB1 101529Z 11002KT 15/12 A3019 RMK A01 T01510117  RH  080%=      5-min Rain = 0
KSB1 101530Z 11002KT 15/12 A3019 RMK A01 T01500117  RH  080%=      5-min Rain = 0
KSB1 101531Z 12002KT 15/12 A3019 RMK A01 T01500116  RH  081%=      5-min Rain = 0
KSB1 101532Z 10001KT 15/12 A3019 RMK A01 T01490117  RH  081%=      5-min Rain = 0
KSB1 101533Z 09001KT 15/12 A3019 RMK A01 T01490117  RH  081%=      5-min Rain = 0
KSB1 101534Z 09001KT 15/12 A3019 RMK A01 T01490118  RH  081%=      5-min Rain = 0
KSB1 101535Z 09002KT 15/12 A3019 RMK A01 T01500117  RH  081%=      5-min Rain = 0
KSB1 101536Z 16000KT 15/12 A3019 RMK A01 T01500117  RH  080%=      5-min Rain = 0
KSB1 101537Z 14000KT 15/12 A3019 RMK A01 T01510117  RH  080%=      5-min Rain = 0
KSB1 101538Z 14001KT 15/12 A3019 RMK A01 T01520118  RH  080%=      5-min Rain = 0
KSB1 101539Z 13001KT 15/12 A3019 RMK A01 T01540118  RH  079%=      5-min Rain = 0
KSB1 101540Z 00000KT 16/12 A3019 RMK A01 T01550118  RH  079%=      5-min Rain = 0
KSB1 101541Z 11001KT 16/12 A3019 RMK A01 T01560118  RH  078%=      5-min Rain = 0
KSB1 101542Z 14001KT 16/12 A3019 RMK A01 T01570118  RH  078%=      5-min Rain = 0
KSB1 101543Z 13001KT 16/12 A3019 RMK A01 T01580118  RH  077%=      5-min Rain = 0
KSB1 101544Z 17001KT 16/12 A3019 RMK A01 T01580118  RH  077%=      5-min Rain = 0
KSB1 101545Z 16001KT 16/12 A3019 RMK A01 T01580119  RH  078%=      5-min Rain = 0
KSB1 101546Z 18000KT 16/12 A3019 RMK A01 T01590119  RH  077%=      5-min Rain = 0
KSB1 101547Z 19003KT 16/12 A3019 RMK A01 T01600120  RH  077%=      5-min Rain = 0
KSB1 101548Z 19002KT 16/12 A3019 RMK A01 T01610120  RH  077%=      5-min Rain = 0
KSB1 101549Z 15001KT 16/12 A3019 RMK A01 T01610119  RH  076%=      5-min Rain = 0
KSB1 101550Z 19003KT 16/12 A3019 RMK A01 T01600119  RH  077%=      5-min Rain = 0
KSB1 101551Z 21004KT 16/12 A3019 RMK A01 T01610120  RH  077%=      5-min Rain = 0
KSB1 101552Z 22005KT 16/12 A3019 RMK A01 T01630120  RH  076%=      5-min Rain = 0
KSB1 101553Z 22004KT 16/12 A3019 RMK A01 T01640121  RH  075%=      5-min Rain = 0
KSB1 101554Z 21006KT 17/12 A3019 RMK A01 T01650121  RH  075%=      5-min Rain = 0
KSB1 101555Z 22005KT 17/12 A3019 RMK A01 T01650120  RH  075%=      5-min Rain = 0
KSB1 101556Z 22006KT 17/12 A3019 RMK A01 T01660121  RH  075%=      5-min Rain = 0
KSB1 101557Z 23006KT 17/12 A3019 RMK A01 T01670121  RH  074%=      5-min Rain = 0
KSB1 101558Z 22005KT 17/12 A3019 RMK A01 T01670121  RH  074%=      5-min Rain = 0
KSB1 101559Z 22007KT 17/12 A3019 RMK A01 T01690122  RH  074%=      5-min Rain = 0
KSB1 101600Z 22008KT 17/12 A3019 RMK A01 T01690120  RH  073%=      5-min Rain = 0
KSB1 101601Z 22006KT 17/12 A3019 RMK A01 T01680121  RH  073%=      5-min Rain = 0
KSB1 101602Z 23007KT 17/12 A3019 RMK A01 T01680121  RH  074%=      5-min Rain = 0
KSB1 101603Z 22008KT 17/12 A3019 RMK A01 T01680120  RH  073%=      5-min Rain = 0
KSB1 101604Z 22009KT 17/12 A3019 RMK A01 T01680120  RH  073%=      5-min Rain = 0
KSB1 101605Z 22007KT 17/12 A3019 RMK A01 T01670119  RH  073%=      5-min Rain = 0
KSB1 101606Z 22007KT 17/12 A3019 RMK A01 T01670120  RH  074%=      5-min Rain = 0
KSB1 101607Z 22007KT 17/12 A3019 RMK A01 T01680120  RH  073%=      5-min Rain = 0
KSB1 101608Z 22008KT 17/12 A3019 RMK A01 T01680120  RH  073%=      5-min Rain = 0
KSB1 101609Z 22009KT 17/12 A3019 RMK A01 T01680120  RH  073%=      5-min Rain = 0
KSB1 101610Z 23008KT 17/12 A3019 RMK A01 T01670119  RH  073%=      5-min Rain = 0
KSB1 101611Z 22008KT 17/12 A3019 RMK A01 T01660119  RH  074%=      5-min Rain = 0
KSB1 101612Z 22008KT 17/12 A3019 RMK A01 T01660119  RH  074%=      5-min Rain = 0
KSB1 101613Z 23007KT 17/12 A3018 RMK A01 T01670120  RH  074%=      5-min Rain = 0
KSB1 101614Z 23008KT 17/12 A3018 RMK A01 T01680120  RH  073%=      5-min Rain = 0
KSB1 101615Z 22008KT 17/12 A3018 RMK A01 T01680120  RH  073%=      5-min Rain = 0
KSB1 101616Z 22009KT 17/12 A3018 RMK A01 T01680119  RH  073%=      5-min Rain = 0
KSB1 101617Z 23008KT 17/12 A3018 RMK A01 T01680119  RH  073%=      5-min Rain = 0
KSB1 101618Z 22009KT 17/12 A3018 RMK A01 T01680119  RH  073%=      5-min Rain = 0
KSB1 101619Z 22008KT 17/12 A3018 RMK A01 T01680120  RH  073%=      5-min Rain = 0
KSB1 101620Z 22009KT 17/12 A3018 RMK A01 T01700121  RH  073%=      5-min Rain = 0
KSB1 101621Z 22008KT 17/12 A3019 RMK A01 T01710121  RH  072%=      5-min Rain = 0
KSB1 101622Z 23009KT 17/12 A3019 RMK A01 T01720121  RH  072%=      5-min Rain = 0
KSB1 101623Z 23009KT 17/12 A3018 RMK A01 T01720120  RH  071%=      5-min Rain = 0
KSB1 101624Z 23008KT 17/12 A3019 RMK A01 T01720121  RH  072%=      5-min Rain = 0
KSB1 101625Z 22009KT 17/12 A3018 RMK A01 T01730121  RH  071%=      5-min Rain = 0
KSB1 101626Z 23009KT 17/12 A3019 RMK A01 T01730121  RH  071%=      5-min Rain = 0
KSB1 101627Z 22009KT 17/12 A3019 RMK A01 T01740121  RH  071%=      5-min Rain = 0
KSB1 101628Z 22009KT 18/12 A3018 RMK A01 T01750121  RH  071%=      5-min Rain = 0
KSB1 101629Z 22009KT 17/12 A3018 RMK A01 T01740121  RH  071%=      5-min Rain = 0
KSB1 101630Z 23009KT 17/12 A3018 RMK A01 T01740122  RH  071%=      5-min Rain = 0
KSB1 101631Z 22009KT 18/12 A3018 RMK A01 T01750121  RH  070%=      5-min Rain = 0
KSB1 101632Z 23009KT 17/12 A3018 RMK A01 T01740121  RH  071%=      5-min Rain = 0
KSB1 101633Z 23009KT 17/12 A3018 RMK A01 T01740120  RH  070%=      5-min Rain = 0
KSB1 101634Z 23008KT 17/12 A3018 RMK A01 T01740121  RH  071%=      5-min Rain = 0
KSB1 101635Z 21008KT 17/12 A3018 RMK A01 T01740121  RH  071%=      5-min Rain = 0
KSB1 101636Z 22007KT 18/12 A3018 RMK A01 T01750121  RH  070%=      5-min Rain = 0
KSB1 101637Z 22008KT 18/12 A3018 RMK A01 T01770122  RH  070%=      5-min Rain = 0
KSB1 101638Z 23007KT 18/12 A3018 RMK A01 T01780121  RH  070%=      5-min Rain = 0
KSB1 101639Z 23008KT 18/12 A3018 RMK A01 T01780121  RH  069%=      5-min Rain = 0
KSB1 101640Z 23006KT 18/12 A3018 RMK A01 T01770120  RH  069%=      5-min Rain = 0
KSB1 101641Z 22007KT 18/12 A3018 RMK A01 T01770121  RH  070%=      5-min Rain = 0
KSB1 101642Z 22006KT 18/12 A3018 RMK A01 T01790121  RH  069%=      5-min Rain = 0
KSB1 101643Z 21006KT 18/12 A3018 RMK A01 T01800123  RH  069%=      5-min Rain = 0
KSB1 101644Z 22006KT 18/12 A3018 RMK A01 T01820123  RH  068%=      5-min Rain = 0
KSB1 101645Z 22007KT 18/12 A3018 RMK A01 T01830123  RH  068%=      5-min Rain = 0
KSB1 101646Z 22006KT 18/12 A3018 RMK A01 T01830121  RH  067%=      5-min Rain = 0
KSB1 101647Z 23005KT 18/12 A3018 RMK A01 T01830122  RH  068%=      5-min Rain = 0
KSB1 101648Z 23005KT 18/12 A3018 RMK A01 T01840122  RH  067%=      5-min Rain = 0
KSB1 101649Z 22005KT 18/12 A3018 RMK A01 T01830122  RH  067%=      5-min Rain = 0
KSB1 101650Z 23005KT 18/12 A3018 RMK A01 T01840122  RH  067%=      5-min Rain = 0
KSB1 101651Z 23005KT 18/12 A3018 RMK A01 T01840122  RH  067%=      5-min Rain = 0
KSB1 101652Z 22006KT 18/12 A3018 RMK A01 T01840123  RH  067%=      5-min Rain = 0
KSB1 101653Z 23006KT 19/12 A3018 RMK A01 T01850122  RH  067%=      5-min Rain = 0
KSB1 101654Z 22006KT 19/12 A3018 RMK A01 T01860123  RH  067%=      5-min Rain = 0
KSB1 101655Z 22005KT 19/12 A3018 RMK A01 T01870123  RH  066%=      5-min Rain = 0
KSB1 101656Z 22006KT 19/12 A3018 RMK A01 T01880123  RH  066%=      5-min Rain = 0
KSB1 101657Z 22006KT 19/12 A3018 RMK A01 T01890123  RH  066%=      5-min Rain = 0
KSB1 101658Z 22005KT 19/12 A3018 RMK A01 T01890123  RH  065%=      5-min Rain = 0
KSB1 101659Z 21006KT 19/12 A3018 RMK A01 T01900123  RH  065%=      5-min Rain = 0
KSB1 101700Z 23006KT 19/12 A3018 RMK A01 T01890122  RH  065%=      5-min Rain = 0
KSB1 101701Z 22005KT 19/12 A3018 RMK A01 T01890123  RH  065%=      5-min Rain = 0
KSB1 101702Z 22004KT 19/12 A3018 RMK A01 T01890123  RH  065%=      5-min Rain = 0
KSB1 101703Z 21004KT 19/12 A3018 RMK A01 T01900124  RH  065%=      5-min Rain = 0
KSB1 101704Z 19006KT 19/12 A3018 RMK A01 T01910124  RH  065%=      5-min Rain = 0
KSB1 101705Z 21005KT 19/12 A3017 RMK A01 T01930124  RH  064%=      5-min Rain = 0
KSB1 101706Z 19006KT 20/12 A3017 RMK A01 T01950124  RH  064%=      5-min Rain = 0
KSB1 101707Z 19006KT 19/12 A3017 RMK A01 T01940123  RH  064%=      5-min Rain = 0
KSB1 101708Z 19006KT 19/12 A3017 RMK A01 T01930123  RH  064%=      5-min Rain = 0
KSB1 101709Z 19007KT 19/12 A3017 RMK A01 T01930123  RH  064%=      5-min Rain = 0
KSB1 101710Z 19006KT 19/12 A3017 RMK A01 T01930122  RH  064%=      5-min Rain = 0
KSB1 101711Z 18007KT 19/12 A3017 RMK A01 T01930123  RH  064%=      5-min Rain = 0
KSB1 101712Z 18007KT 19/12 A3017 RMK A01 T01930122  RH  063%=      5-min Rain = 0
KSB1 101713Z 19007KT 19/12 A3017 RMK A01 T01940124  RH  064%=      5-min Rain = 0
KSB1 101714Z 20008KT 20/12 A3017 RMK A01 T01960124  RH  063%=      5-min Rain = 0
KSB1 101715Z 21008KT 20/12 A3017 RMK A01 T01950122  RH  063%=      5-min Rain = 0
KSB1 101716Z 21007KT 19/12 A3017 RMK A01 T01940123  RH  063%=      5-min Rain = 0
KSB1 101717Z 20006KT 19/12 A3017 RMK A01 T01940123  RH  063%=      5-min Rain = 0
KSB1 101718Z 19006KT 19/12 A3017 RMK A01 T01930122  RH  063%=      5-min Rain = 0
KSB1 101719Z 21008KT 20/12 A3017 RMK A01 T01950124  RH  064%=      5-min Rain = 0
KSB1 101720Z 22007KT 20/12 A3017 RMK A01 T01970124  RH  063%=      5-min Rain = 0
KSB1 101721Z 20007KT 20/12 A3017 RMK A01 T01960123  RH  063%=      5-min Rain = 0
KSB1 101722Z 19006KT 20/12 A3017 RMK A01 T01950123  RH  063%=      5-min Rain = 0
KSB1 101723Z 21006KT 20/13 A3017 RMK A01 T01960125  RH  063%=      5-min Rain = 0
KSB1 101724Z 21007KT 20/12 A3017 RMK A01 T01970123  RH  062%=      5-min Rain = 0
KSB1 101725Z 22008KT 20/12 A3017 RMK A01 T01960123  RH  063%=      5-min Rain = 0
KSB1 101726Z 22007KT 20/12 A3017 RMK A01 T01960123  RH  063%=      5-min Rain = 0
KSB1 101727Z 22006KT 20/12 A3017 RMK A01 T01950123  RH  063%=      5-min Rain = 0
KSB1 101728Z 21007KT 20/12 A3017 RMK A01 T01960124  RH  063%=      5-min Rain = 0
KSB1 101729Z 21005KT 20/12 A3017 RMK A01 T01970124  RH  063%=      5-min Rain = 0
KSB1 101730Z 21006KT 20/12 A3017 RMK A01 T01970123  RH  062%=      5-min Rain = 0
KSB1 101731Z 22007KT 20/12 A3017 RMK A01 T01960123  RH  063%=      5-min Rain = 0
KSB1 101732Z 22005KT 20/12 A3017 RMK A01 T01960124  RH  063%=      5-min Rain = 0
KSB1 101733Z 21006KT 20/12 A3017 RMK A01 T01970124  RH  063%=      5-min Rain = 0
KSB1 101734Z 21006KT 20/12 A3017 RMK A01 T01990124  RH  062%=      5-min Rain = 0
KSB1 101735Z 22007KT 20/12 A3016 RMK A01 T01990124  RH  062%=      5-min Rain = 0
KSB1 101736Z 23007KT 20/12 A3016 RMK A01 T01990123  RH  061%=      5-min Rain = 0
KSB1 101737Z 24006KT 20/12 A3016 RMK A01 T01990124  RH  062%=      5-min Rain = 0
KSB1 101738Z 24004KT 20/12 A3016 RMK A01 T02000124  RH  061%=      5-min Rain = 0
KSB1 101739Z 24005KT 20/12 A3016 RMK A01 T02000124  RH  061%=      5-min Rain = 0
KSB1 101740Z 23004KT 20/12 A3016 RMK A01 T01990123  RH  062%=      5-min Rain = 0
KSB1 101741Z 21005KT 20/12 A3016 RMK A01 T01990123  RH  062%=      5-min Rain = 0
KSB1 101742Z 19004KT 20/12 A3016 RMK A01 T02000123  RH  061%=      5-min Rain = 0
KSB1 101743Z 21004KT 20/12 A3016 RMK A01 T02010124  RH  061%=      5-min Rain = 0
KSB1 101744Z 20003KT 20/12 A3016 RMK A01 T02010123  RH  061%=      5-min Rain = 0
KSB1 101745Z 22005KT 20/13 A3015 RMK A01 T02020125  RH  061%=      5-min Rain = 0
KSB1 101746Z 20006KT 21/13 A3015 RMK A01 T02050127  RH  061%=      5-min Rain = 0
KSB1 101747Z 23006KT 21/13 A3015 RMK A01 T02090128  RH  060%=      5-min Rain = 0
KSB1 101748Z 24006KT 21/12 A3015 RMK A01 T02100123  RH  058%=      5-min Rain = 0
KSB1 101749Z 21007KT 21/12 A3015 RMK A01 T02070124  RH  059%=      5-min Rain = 0
KSB1 101750Z 22007KT 21/13 A3015 RMK A01 T02080125  RH  059%=      5-min Rain = 0
KSB1 101751Z 23008KT 21/13 A3015 RMK A01 T02100125  RH  058%=      5-min Rain = 0
KSB1 101752Z 23009KT 21/13 A3015 RMK A01 T02100125  RH  058%=      5-min Rain = 0
KSB1 101753Z 23008KT 21/12 A3015 RMK A01 T02100124  RH  058%=      5-min Rain = 0
KSB1 101754Z 23007KT 21/12 A3015 RMK A01 T02110123  RH  057%=      5-min Rain = 0
KSB1 101755Z 23007KT 21/12 A3015 RMK A01 T02100123  RH  058%=      5-min Rain = 0
KSB1 101756Z 23006KT 21/12 A3015 RMK A01 T02090124  RH  058%=      5-min Rain = 0
KSB1 101757Z 23006KT 21/12 A3015 RMK A01 T02090124  RH  058%=      5-min Rain = 0
KSB1 101758Z 22009KT 21/13 A3015 RMK A01 T02100125  RH  058%=      5-min Rain = 0
KSB1 101759Z 23007KT 21/12 A3015 RMK A01 T02110124  RH  058%=      5-min Rain = 0
KSB1 101800Z 23006KT 21/13 A3015 RMK A01 T02100125  RH  058%=      5-min Rain = 0
KSB1 101801Z 20006KT 21/13 A3015 RMK A01 T02110126  RH  058%=      5-min Rain = 0
KSB1 101802Z 22007KT 21/13 A3015 RMK A01 T02130127  RH  058%=      5-min Rain = 0
KSB1 101803Z 23009KT 22/13 A3015 RMK A01 T02160126  RH  057%=      5-min Rain = 0
KSB1 101804Z 23008KT 22/13 A3015 RMK A01 T02150125  RH  056%=      5-min Rain = 0
KSB1 101805Z 23008KT 21/12 A3015 RMK A01 T02130124  RH  057%=      5-min Rain = 0
KSB1 101806Z 24008KT 21/13 A3015 RMK A01 T02130125  RH  057%=      5-min Rain = 0
KSB1 101807Z 24006KT 21/12 A3015 RMK A01 T02130124  RH  057%=      5-min Rain = 0
KSB1 101808Z 24007KT 21/12 A3015 RMK A01 T02140124  RH  057%=      5-min Rain = 0
KSB1 101809Z 23005KT 21/12 A3015 RMK A01 T02140124  RH  057%=      5-min Rain = 0
KSB1 101810Z 24007KT 21/13 A3014 RMK A01 T02130126  RH  057%=      5-min Rain = 0
KSB1 101811Z 22009KT 22/13 A3014 RMK A01 T02150126  RH  057%=      5-min Rain = 0
KSB1 101812Z 21008KT 22/13 A3014 RMK A01 T02150127  RH  057%=      5-min Rain = 0
KSB1 101813Z 21008KT 22/13 A3014 RMK A01 T02160126  RH  057%=      5-min Rain = 0
KSB1 101814Z 22007KT 22/13 A3014 RMK A01 T02160127  RH  057%=      5-min Rain = 0
KSB1 101815Z 24006KT 22/13 A3014 RMK A01 T02170125  RH  056%=      5-min Rain = 0
KSB1 101816Z 23006KT 22/13 A3014 RMK A01 T02160126  RH  056%=      5-min Rain = 0
KSB1 101817Z 25008KT 22/13 A3014 RMK A01 T02180126  RH  056%=      5-min Rain = 0
KSB1 101818Z 22009KT 22/13 A3014 RMK A01 T02180126  RH  056%=      5-min Rain = 0
KSB1 101819Z 22009KT 22/13 A3014 RMK A01 T02160125  RH  056%=      5-min Rain = 0
KSB1 101820Z 21008KT 21/13 A3014 RMK A01 T02140125  RH  057%=      5-min Rain = 0
KSB1 101821Z 21008KT 21/13 A3014 RMK A01 T02140125  RH  057%=      5-min Rain = 0
KSB1 101822Z 21008KT 21/12 A3014 RMK A01 T02130124  RH  057%=      5-min Rain = 0
KSB1 101823Z 21007KT 21/12 A3013 RMK A01 T02110124  RH  057%=      5-min Rain = 0
KSB1 101824Z 20006KT 21/12 A3013 RMK A01 T02090123  RH  058%=      5-min Rain = 0
KSB1 101825Z 21005KT 21/12 A3013 RMK A01 T02070123  RH  058%=      5-min Rain = 0
KSB1 101826Z 21005KT 21/12 A3013 RMK A01 T02060123  RH  059%=      5-min Rain = 0
KSB1 101827Z 22005KT 21/12 A3013 RMK A01 T02070124  RH  059%=      5-min Rain = 0
KSB1 101828Z 21005KT 21/13 A3013 RMK A01 T02100125  RH  058%=      5-min Rain = 0
KSB1 101829Z 22006KT 21/13 A3013 RMK A01 T02110125  RH  058%=      5-min Rain = 0
KSB1 101830Z 24004KT 21/13 A3013 RMK A01 T02120125  RH  058%=      5-min Rain = 0
KSB1 101831Z 22004KT 21/13 A3013 RMK A01 T02120125  RH  058%=      5-min Rain = 0
KSB1 101832Z 24006KT 21/13 A3013 RMK A01 T02140126  RH  057%=      5-min Rain = 0
KSB1 101833Z 23006KT 22/13 A3013 RMK A01 T02150126  RH  057%=      5-min Rain = 0
KSB1 101834Z 22008KT 22/13 A3013 RMK A01 T02160126  RH  056%=      5-min Rain = 0
KSB1 101835Z 22006KT 22/13 A3013 RMK A01 T02170125  RH  056%=      5-min Rain = 0
KSB1 101836Z 19004KT 22/12 A3013 RMK A01 T02160124  RH  056%=      5-min Rain = 0
KSB1 101837Z 22005KT 22/13 A3013 RMK A01 T02160125  RH  056%=      5-min Rain = 0
KSB1 101838Z 22004KT 22/12 A3013 RMK A01 T02160124  RH  056%=      5-min Rain = 0
KSB1 101839Z 19005KT 22/12 A3012 RMK A01 T02160124  RH  056%=      5-min Rain = 0
KSB1 101840Z 20004KT 22/12 A3012 RMK A01 T02170123  RH  055%=      5-min Rain = 0
KSB1 101841Z 20004KT 22/12 A3012 RMK A01 T02170124  RH  055%=      5-min Rain = 0
KSB1 101842Z 21006KT 22/12 A3012 RMK A01 T02170124  RH  056%=      5-min Rain = 0
KSB1 101843Z 21005KT 22/13 A3012 RMK A01 T02190126  RH  056%=      5-min Rain = 0
KSB1 101844Z 21005KT 22/13 A3012 RMK A01 T02210125  RH  055%=      5-min Rain = 0
KSB1 101845Z 19005KT 22/12 A3012 RMK A01 T02200124  RH  054%=      5-min Rain = 0
KSB1 101846Z 18004KT 22/12 A3012 RMK A01 T02190124  RH  055%=      5-min Rain = 0
KSB1 101847Z 21002KT 22/12 A3012 RMK A01 T02190124  RH  055%=      5-min Rain = 0
KSB1 101848Z 21006KT 22/13 A3012 RMK A01 T02220125  RH  054%=      5-min Rain = 0
KSB1 101849Z 21007KT 22/12 A3012 RMK A01 T02220124  RH  054%=      5-min Rain = 0
KSB1 101850Z 20005KT 22/12 A3012 RMK A01 T02210123  RH  054%=      5-min Rain = 0
KSB1 101851Z 21007KT 22/12 A3012 RMK A01 T02210124  RH  054%=      5-min Rain = 0
KSB1 101852Z 20010KT 22/13 A3012 RMK A01 T02230125  RH  054%=      5-min Rain = 0
KSB1 101853Z 21009KT 22/12 A3012 RMK A01 T02240124  RH  053%=      5-min Rain = 0
KSB1 101854Z 23008KT 23/13 A3012 RMK A01 T02250126  RH  054%=      5-min Rain = 0
KSB1 101855Z 23008KT 23/13 A3012 RMK A01 T02260125  RH  053%=      5-min Rain = 0
KSB1 101856Z 21010KT 23/13 A3012 RMK A01 T02250125  RH  053%=      5-min Rain = 0
KSB1 101857Z 22011KT 23/13 A3012 RMK A01 T02250125  RH  053%=      5-min Rain = 0
KSB1 101858Z 22010KT 22/12 A3012 RMK A01 T02240124  RH  053%=      5-min Rain = 0
KSB1 101859Z 21010KT 22/12 A3012 RMK A01 T02210123  RH  054%=      5-min Rain = 0
KSB1 101900Z 21008KT 22/12 A3012 RMK A01 T02200123  RH  054%=      5-min Rain = 0
KSB1 101901Z 20007KT 22/12 A3012 RMK A01 T02200123  RH  054%=      5-min Rain = 0
KSB1 101902Z 19007KT 22/12 A3012 RMK A01 T02200124  RH  054%=      5-min Rain = 0
KSB1 101903Z 22008KT 22/13 A3011 RMK A01 T02220125  RH  054%=      5-min Rain = 0
KSB1 101904Z 22005KT 22/12 A3011 RMK A01 T02220123  RH  054%=      5-min Rain = 0
KSB1 101905Z 21006KT 22/12 A3011 RMK A01 T02200124  RH  054%=      5-min Rain = 0
KSB1 101906Z 20006KT 22/12 A3011 RMK A01 T02200123  RH  054%=      5-min Rain = 0
KSB1 101907Z 19007KT 22/13 A3011 RMK A01 T02200125  RH  055%=      5-min Rain = 0
KSB1 101908Z 20008KT 22/13 A3011 RMK A01 T02230125  RH  054%=      5-min Rain = 0
KSB1 101909Z 20007KT 22/12 A3011 RMK A01 T02240123  RH  053%=      5-min Rain = 0
KSB1 101910Z 20011KT 22/12 A3011 RMK A01 T02230122  RH  053%=      5-min Rain = 0
KSB1 101911Z 20013KT 22/12 A3011 RMK A01 T02230120  RH  052%=      5-min Rain = 0
KSB1 101912Z 20011KT 22/12 A3011 RMK A01 T02220119  RH  052%=      5-min Rain = 0
KSB1 101913Z 20010KT 22/12 A3011 RMK A01 T02220119  RH  052%=      5-min Rain = 0
KSB1 101914Z 21009KT 22/12 A3011 RMK A01 T02220120  RH  052%=      5-min Rain = 0
KSB1 101915Z 19009KT 22/12 A3011 RMK A01 T02230119  RH  052%=      5-min Rain = 0
KSB1 101916Z 19009KT 22/12 A301 RMK A01 T02240120  RH  052%=      5-min Rain = 0
KSB1 101917Z 19010KT 23/12 A301 RMK A01 T02250120  RH  051%=      5-min Rain = 0
KSB1 101918Z 18009KT 22/12 A301 RMK A01 T02240119  RH  051%=      5-min Rain = 0
KSB1 101919Z 21008KT 22/12 A301 RMK A01 T02230121  RH  052%=      5-min Rain = 0
KSB1 101920Z 22010KT 23/12 A301 RMK A01 T02270124  RH  052%=      5-min Rain = 0
KSB1 101921Z 24010KT 23/12 A301 RMK A01 T02310124  RH  051%=      5-min Rain = 0
KSB1 101922Z 23010KT 23/12 A301 RMK A01 T02320121  RH  050%=      5-min Rain = 0
KSB1 101923Z 23010KT 23/12 A301 RMK A01 T02290121  RH  050%=      5-min Rain = 0
KSB1 101924Z 23007KT 23/12 A301 RMK A01 T02280121  RH  051%=      5-min Rain = 0
KSB1 101925Z 23010KT 23/12 A301 RMK A01 T02290122  RH  051%=      5-min Rain = 0
KSB1 101926Z 24010KT 23/12 A301 RMK A01 T02310122  RH  050%=      5-min Rain = 0
KSB1 101927Z 23009KT 23/12 A301 RMK A01 T02310121  RH  050%=      5-min Rain = 0
KSB1 101928Z 23008KT 23/12 A301 RMK A01 T02310121  RH  050%=      5-min Rain = 0
KSB1 101929Z 23011KT 23/12 A301 RMK A01 T02310122  RH  050%=      5-min Rain = 0
KSB1 101930Z 23008KT 23/12 A301 RMK A01 T02310122  RH  050%=      5-min Rain = 0
KSB1 101931Z 24007KT 23/12 A301 RMK A01 T02310121  RH  050%=      5-min Rain = 0
KSB1 101932Z 23006KT 23/12 A301 RMK A01 T02290121  RH  050%=      5-min Rain = 0
KSB1 101933Z 21007KT 23/12 A301 RMK A01 T02290123  RH  051%=      5-min Rain = 0
KSB1 101934Z 21006KT 23/12 A301 RMK A01 T02320123  RH  050%=      5-min Rain = 0
KSB1 101935Z 21008KT 23/12 A3009 RMK A01 T02320122  RH  050%=      5-min Rain = 0
KSB1 101936Z 22010KT 23/12 A3009 RMK A01 T02310122  RH  050%=      5-min Rain = 0
KSB1 101937Z 22009KT 23/12 A3009 RMK A01 T02310122  RH  050%=      5-min Rain = 0
KSB1 101938Z 23007KT 23/12 A3009 RMK A01 T02330123  RH  050%=      5-min Rain = 0
KSB1 101939Z 24005KT 23/12 A3009 RMK A01 T02340122  RH  049%=      5-min Rain = 0
KSB1 101940Z 22008KT 24/12 A3009 RMK A01 T02350122  RH  049%=      5-min Rain = 0
KSB1 101941Z 21009KT 23/12 A3009 RMK A01 T02340122  RH  049%=      5-min Rain = 0
KSB1 101942Z 22011KT 23/12 A3009 RMK A01 T02330122  RH  050%=      5-min Rain = 0
KSB1 101943Z 24007KT 24/12 A3009 RMK A01 T02360124  RH  049%=      5-min Rain = 0
KSB1 101944Z 26009KT 24/12 A3009 RMK A01 T02380120  RH  047%=      5-min Rain = 0
KSB1 101945Z 26008KT 24/12 A3009 RMK A01 T02380118  RH  047%=      5-min Rain = 0
KSB1 101946Z 25008KT 24/12 A3009 RMK A01 T02380118  RH  047%=      5-min Rain = 0
KSB1 101947Z 26009KT 24/12 A3009 RMK A01 T02370118  RH  047%=      5-min Rain = 0
KSB1 101948Z 26008KT 24/12 A3009 RMK A01 T02370117  RH  047%=      5-min Rain = 0
KSB1 101949Z 26006KT 24/12 A3009 RMK A01 T02370117  RH  047%=      5-min Rain = 0
KSB1 101950Z 25007KT 24/12 A3009 RMK A01 T02380117  RH  047%=      5-min Rain = 0
KSB1 101951Z 28004KT 24/12 A3009 RMK A01 T02370117  RH  047%=      5-min Rain = 0
KSB1 101952Z 28005KT 24/12 A3009 RMK A01 T02360118  RH  047%=      5-min Rain = 0
KSB1 101953Z 27008KT 24/12 A3008 RMK A01 T02370119  RH  048%=      5-min Rain = 0
KSB1 101954Z 29007KT 24/12 A3008 RMK A01 T02370118  RH  047%=      5-min Rain = 0
KSB1 101955Z 27006KT 24/12 A3008 RMK A01 T02380119  RH  047%=      5-min Rain = 0
KSB1 101956Z 25007KT 24/12 A3008 RMK A01 T02400119  RH  047%=      5-min Rain = 0
KSB1 101957Z 26005KT 24/12 A3008 RMK A01 T02410117  RH  046%=      5-min Rain = 0
KSB1 101958Z 28007KT 24/12 A3008 RMK A01 T02400117  RH  046%=      5-min Rain = 0
KSB1 101959Z 27007KT 24/12 A3008 RMK A01 T02400118  RH  046%=      5-min Rain = 0
KSB1 102000Z 28008KT 24/12 A3008 RMK A01 T02370117  RH  047%=      5-min Rain = 0
KSB1 102001Z 29006KT 24/12 A3008 RMK A01 T02360117  RH  047%=      5-min Rain = 0
KSB1 102002Z 30006KT 24/12 A3008 RMK A01 T02350118  RH  048%=      5-min Rain = 0
KSB1 102003Z 29006KT 24/12 A3008 RMK A01 T02350118  RH  048%=      5-min Rain = 0
KSB1 102004Z 28008KT 24/12 A3008 RMK A01 T02370120  RH  048%=      5-min Rain = 0
KSB1 102005Z 30008KT 24/12 A3008 RMK A01 T02400120  RH  047%=      5-min Rain = 0
KSB1 102006Z 31008KT 24/12 A3008 RMK A01 T02400120  RH  047%=      5-min Rain = 0
KSB1 102007Z 32005KT 24/12 A3008 RMK A01 T02390120  RH  047%=      5-min Rain = 0
KSB1 102008Z 30005KT 24/12 A3008 RMK A01 T02370120  RH  048%=      5-min Rain = 0
KSB1 102009Z 29005KT 24/12 A3008 RMK A01 T02400120  RH  047%=      5-min Rain = 0
KSB1 102010Z 30008KT 24/12 A3008 RMK A01 T02410120  RH  047%=      5-min Rain = 0
KSB1 102011Z 30008KT 24/12 A3008 RMK A01 T02420119  RH  046%=      5-min Rain = 0
KSB1 102012Z 30004KT 24/12 A3008 RMK A01 T02400118  RH  046%=      5-min Rain = 0
KSB1 102013Z 30007KT 24/12 A3008 RMK A01 T02390118  RH  047%=      5-min Rain = 0
KSB1 102014Z 29007KT 24/12 A3008 RMK A01 T02400119  RH  047%=      5-min Rain = 0
KSB1 102015Z 31004KT 24/12 A3008 RMK A01 T02400118  RH  046%=      5-min Rain = 0
KSB1 102016Z 27004KT 24/12 A3008 RMK A01 T02400118  RH  046%=      5-min Rain = 0
KSB1 102017Z 27005KT 24/12 A3008 RMK A01 T02400119  RH  047%=      5-min Rain = 0
KSB1 102018Z 26007KT 24/12 A3007 RMK A01 T02410119  RH  046%=      5-min Rain = 0
KSB1 102019Z 28008G13KT 24/12 A3007 RMK A01 T02420119  RH  046%=      5-min Rain = 0
KSB1 102020Z 30008KT 24/12 A3007 RMK A01 T02410120  RH  046%=      5-min Rain = 0
KSB1 102021Z 30009KT 24/12 A3007 RMK A01 T02410119  RH  046%=      5-min Rain = 0
KSB1 102022Z 30006KT 24/12 A3007 RMK A01 T02410119  RH  046%=      5-min Rain = 0
KSB1 102023Z 29007KT 24/12 A3007 RMK A01 T02400120  RH  047%=      5-min Rain = 0
KSB1 102024Z 30006KT 24/12 A3007 RMK A01 T02430120  RH  046%=      5-min Rain = 0
KSB1 102025Z 32006KT 24/12 A3007 RMK A01 T02430121  RH  046%=      5-min Rain = 0
KSB1 102026Z 31006KT 24/12 A3007 RMK A01 T02420120  RH  046%=      5-min Rain = 0
KSB1 102027Z 30005KT 24/12 A3007 RMK A01 T02410120  RH  047%=      5-min Rain = 0
KSB1 102028Z 27005KT 24/12 A3007 RMK A01 T02400119  RH  047%=      5-min Rain = 0
KSB1 102029Z 28005KT 24/12 A3007 RMK A01 T02410118  RH  046%=      5-min Rain = 0
KSB1 102030Z 26005KT 24/12 A3007 RMK A01 T02410118  RH  046%=      5-min Rain = 0
KSB1 102031Z 24006KT 24/12 A3007 RMK A01 T02420115  RH  045%=      5-min Rain = 0
KSB1 102032Z 25004KT 24/11 A3007 RMK A01 T02440111  RH  043%=      5-min Rain = 0
KSB1 102033Z 26006KT 24/11 A3007 RMK A01 T02430112  RH  044%=      5-min Rain = 0
KSB1 102034Z 23006KT 24/11 A3007 RMK A01 T02440114  RH  044%=      5-min Rain = 0
KSB1 102035Z 22008KT 24/11 A3007 RMK A01 T02440114  RH  044%=      5-min Rain = 0
KSB1 102036Z 25009KT 25/11 A3007 RMK A01 T02450114  RH  044%=      5-min Rain = 0
KSB1 102037Z 23010KT 25/11 A3006 RMK A01 T02450114  RH  044%=      5-min Rain = 0
KSB1 102038Z 23009KT 25/12 A3006 RMK A01 T02460115  RH  044%=      5-min Rain = 0
KSB1 102039Z 23010KT 25/12 A3006 RMK A01 T02480115  RH  043%=      5-min Rain = 0
KSB1 102040Z 25009KT 24/11 A3006 RMK A01 T02440113  RH  044%=      5-min Rain = 0
KSB1 102041Z 25008KT 24/11 A3006 RMK A01 T02400110  RH  044%=      5-min Rain = 0
KSB1 102042Z 28007KT 24/11 A3006 RMK A01 T02380113  RH  045%=      5-min Rain = 0
KSB1 102043Z 29008KT 24/12 A3006 RMK A01 T02400116  RH  046%=      5-min Rain = 0
KSB1 102044Z 29008KT 24/12 A3006 RMK A01 T02410117  RH  046%=      5-min Rain = 0
KSB1 102045Z 29009KT 24/12 A3006 RMK A01 T02400117  RH  046%=      5-min Rain = 0
KSB1 102046Z 29010KT 24/12 A3006 RMK A01 T02410116  RH  046%=      5-min Rain = 0
KSB1 102047Z 29008KT 24/12 A3006 RMK A01 T02400116  RH  046%=      5-min Rain = 0
KSB1 102048Z 28008KT 24/12 A3006 RMK A01 T02390116  RH  046%=      5-min Rain = 0
KSB1 102049Z 27008KT 24/12 A3006 RMK A01 T02390116  RH  046%=      5-min Rain = 0
KSB1 102050Z 30006KT 24/12 A3006 RMK A01 T02390116  RH  046%=      5-min Rain = 0
KSB1 102051Z 30004KT 24/12 A3006 RMK A01 T02390116  RH  046%=      5-min Rain = 0
KSB1 102052Z 32002KT 24/12 A3006 RMK A01 T02390116  RH  046%=      5-min Rain = 0
KSB1 102053Z 31003KT 24/12 A3006 RMK A01 T02390117  RH  046%=      5-min Rain = 0
KSB1 102054Z 31005KT 24/12 A3006 RMK A01 T02400117  RH  046%=      5-min Rain = 0
KSB1 102055Z 30006KT 24/12 A3006 RMK A01 T02420117  RH  046%=      5-min Rain = 0
KSB1 102056Z 32005KT 24/12 A3006 RMK A01 T02430117  RH  045%=      5-min Rain = 0
KSB1 102057Z 32006KT 24/12 A3006 RMK A01 T02430117  RH  045%=      5-min Rain = 0
KSB1 102058Z 25010KT 24/12 A3006 RMK A01 T02440115  RH  044%=      5-min Rain = 0
KSB1 102059Z 22009KT 25/12 A3006 RMK A01 T02450116  RH  045%=      5-min Rain = 0
KSB1 102100Z 21007KT 25/12 A3006 RMK A01 T02450115  RH  044%=      5-min Rain = 0
KSB1 102101Z 21007KT 24/11 A3006 RMK A01 T02430114  RH  044%=      5-min Rain = 0
KSB1 102102Z 24004KT 24/11 A3006 RMK A01 T02400114  RH  045%=      5-min Rain = 0
KSB1 102103Z 29003G8KT 24/11 A3006 RMK A01 T02390114  RH  045%=      5-min Rain = 0
KSB1 102104Z 31007KT 24/12 A3006 RMK A01 T02400115  RH  045%=      5-min Rain = 0
KSB1 102105Z 28009KT 24/12 A3006 RMK A01 T02420116  RH  045%=      5-min Rain = 0
KSB1 102106Z 27008KT 24/11 A3006 RMK A01 T02440114  RH  044%=      5-min Rain = 0
KSB1 102107Z 28007KT 24/12 A3006 RMK A01 T02440115  RH  045%=      5-min Rain = 0
KSB1 102108Z 26008KT 25/11 A3006 RMK A01 T02450114  RH  044%=      5-min Rain = 0
KSB1 102109Z 25011KT 25/11 A3006 RMK A01 T02450113  RH  044%=      5-min Rain = 0
KSB1 102110Z 24010KT 24/11 A3006 RMK A01 T02440111  RH  043%=      5-min Rain = 0
KSB1 102111Z 27006KT 24/11 A3006 RMK A01 T02420109  RH  043%=      5-min Rain = 0
KSB1 102112Z 29008KT 24/11 A3006 RMK A01 T02410113  RH  045%=      5-min Rain = 0
KSB1 102113Z 29005KT 24/11 A3006 RMK A01 T02400114  RH  045%=      5-min Rain = 0
KSB1 102114Z 28007KT 24/12 A3006 RMK A01 T02390115  RH  046%=      5-min Rain = 0
KSB1 102115Z 29006KT 24/11 A3006 RMK A01 T02390114  RH  045%=      5-min Rain = 0
KSB1 102116Z 28006KT 24/11 A3006 RMK A01 T02390114  RH  045%=      5-min Rain = 0
KSB1 102117Z 25006KT 24/11 A3006 RMK A01 T02390112  RH  045%=      5-min Rain = 0
KSB1 102118Z 23006KT 24/11 A3006 RMK A01 T02380113  RH  045%=      5-min Rain = 0
KSB1 102119Z 25005KT 24/11 A3006 RMK A01 T02390113  RH  045%=      5-min Rain = 0
KSB1 102120Z 27006KT 24/11 A3006 RMK A01 T02390114  RH  045%=      5-min Rain = 0
KSB1 102121Z 29007KT 24/12 A3006 RMK A01 T02390116  RH  046%=      5-min Rain = 0
KSB1 102122Z 28005KT 24/12 A3006 RMK A01 T02390116  RH  046%=      5-min Rain = 0
KSB1 102123Z 26004KT 24/11 A3006 RMK A01 T02390114  RH  045%=      5-min Rain = 0
KSB1 102124Z 28006KT 24/11 A3006 RMK A01 T02380114  RH  046%=      5-min Rain = 0
KSB1 102125Z 32006KT 24/12 A3006 RMK A01 T02380117  RH  047%=      5-min Rain = 0
KSB1 102126Z 29007KT 24/12 A3006 RMK A01 T02380117  RH  047%=      5-min Rain = 0
KSB1 102127Z 31005KT 24/12 A3006 RMK A01 T02380116  RH  046%=      5-min Rain = 0
KSB1 102128Z 30006KT 24/12 A3006 RMK A01 T02380115  RH  046%=      5-min Rain = 0
KSB1 102129Z 30007KT 24/12 A3005 RMK A01 T02380116  RH  046%=      5-min Rain = 0
KSB1 102130Z 29007KT 24/12 A3005 RMK A01 T02380115  RH  046%=      5-min Rain = 0
KSB1 102131Z 29010KT 24/12 A3005 RMK A01 T02370115  RH  046%=      5-min Rain = 0
KSB1 102132Z 29007KT 24/12 A3005 RMK A01 T02360115  RH  047%=      5-min Rain = 0
KSB1 102133Z 30008KT 24/12 A3005 RMK A01 T02350115  RH  047%=      5-min Rain = 0
KSB1 102134Z 27005KT 24/12 A3005 RMK A01 T02350115  RH  047%=      5-min Rain = 0
KSB1 102135Z 28005KT 24/12 A3005 RMK A01 T02360115  RH  046%=      5-min Rain = 0
KSB1 102136Z 25006KT 24/12 A3005 RMK A01 T02360115  RH  047%=      5-min Rain = 0
KSB1 102137Z 27007KT 24/12 A3005 RMK A01 T02350115  RH  047%=      5-min Rain = 0
KSB1 102138Z 29008KT 24/12 A3005 RMK A01 T02360116  RH  047%=      5-min Rain = 0
KSB1 102139Z 29008KT 24/12 A3005 RMK A01 T02360116  RH  047%=      5-min Rain = 0
KSB1 102140Z 29007KT 24/12 A3005 RMK A01 T02360116  RH  047%=      5-min Rain = 0
KSB1 102141Z 29006KT 24/12 A3005 RMK A01 T02360115  RH  046%=      5-min Rain = 0
KSB1 102142Z 30006KT 24/12 A3005 RMK A01 T02360115  RH  047%=      5-min Rain = 0
KSB1 102143Z 29007KT 24/12 A3005 RMK A01 T02350116  RH  047%=      5-min Rain = 0
KSB1 102144Z 28007KT 24/12 A3005 RMK A01 T02350117  RH  047%=      5-min Rain = 0
KSB1 102145Z 30006KT 24/12 A3005 RMK A01 T02350117  RH  047%=      5-min Rain = 0
KSB1 102146Z 30006KT 24/12 A3005 RMK A01 T02350117  RH  047%=      5-min Rain = 0
KSB1 102147Z 30005KT 23/12 A3005 RMK A01 T02340117  RH  048%=      5-min Rain = 0
KSB1 102148Z 31004KT 23/12 A3005 RMK A01 T02330118  RH  048%=      5-min Rain = 0
KSB1 102149Z 30005KT 23/12 A3005 RMK A01 T02340118  RH  048%=      5-min Rain = 0
KSB1 102150Z 28005KT 24/12 A3005 RMK A01 T02360118  RH  047%=      5-min Rain = 0
KSB1 102151Z 30005KT 24/12 A3005 RMK A01 T02360117  RH  047%=      5-min Rain = 0
KSB1 102152Z 29008KT 24/12 A3005 RMK A01 T02370117  RH  047%=      5-min Rain = 0
KSB1 102153Z 28007KT 24/12 A3005 RMK A01 T02360117  RH  047%=      5-min Rain = 0
KSB1 102154Z 31005KT 23/12 A3005 RMK A01 T02340117  RH  048%=      5-min Rain = 0
KSB1 102155Z 30006KT 23/12 A3005 RMK A01 T02340118  RH  048%=      5-min Rain = 0
KSB1 102156Z 29007KT 23/12 A3005 RMK A01 T02340117  RH  048%=      5-min Rain = 0
KSB1 102157Z 29006KT 24/12 A3005 RMK A01 T02350117  RH  047%=      5-min Rain = 0
KSB1 102158Z 29006KT 24/12 A3005 RMK A01 T02350117  RH  047%=      5-min Rain = 0
KSB1 102159Z 30005KT 24/12 A3005 RMK A01 T02350117  RH  047%=      5-min Rain = 0
KSB1 102200Z 30007KT 24/12 A3005 RMK A01 T02350117  RH  047%=      5-min Rain = 0
KSB1 102201Z 29006KT 24/12 A3005 RMK A01 T02350116  RH  047%=      5-min Rain = 0
KSB1 102202Z 29005KT 24/12 A3005 RMK A01 T02350117  RH  047%=      5-min Rain = 0
KSB1 102203Z 30004KT 23/12 A3005 RMK A01 T02340117  RH  048%=      5-min Rain = 0
KSB1 102204Z 29005KT 23/12 A3005 RMK A01 T02340118  RH  048%=      5-min Rain = 0
KSB1 102205Z 29007KT 24/12 A3005 RMK A01 T02350118  RH  048%=      5-min Rain = 0
KSB1 102206Z 29008KT 24/12 A3005 RMK A01 T02350117  RH  047%=      5-min Rain = 0
KSB1 102207Z 29008KT 23/12 A3005 RMK A01 T02330117  RH  048%=      5-min Rain = 0
KSB1 102208Z 28007KT 23/12 A3005 RMK A01 T02330117  RH  048%=      5-min Rain = 0
KSB1 102209Z 27006KT 23/12 A3005 RMK A01 T02330117  RH  048%=      5-min Rain = 0
KSB1 102210Z 29006KT 23/12 A3005 RMK A01 T02340117  RH  048%=      5-min Rain = 0
KSB1 102211Z 26007KT 23/12 A3005 RMK A01 T02340117  RH  048%=      5-min Rain = 0
KSB1 102212Z 27009KT 23/12 A3005 RMK A01 T02340116  RH  047%=      5-min Rain = 0
KSB1 102213Z 27007KT 23/11 A3005 RMK A01 T02330114  RH  047%=      5-min Rain = 0
KSB1 102214Z 28007KT 23/12 A3005 RMK A01 T02320115  RH  048%=      5-min Rain = 0
KSB1 102215Z 27006KT 23/12 A3005 RMK A01 T02330116  RH  048%=      5-min Rain = 0
KSB1 102216Z 26007KT 23/12 A3005 RMK A01 T02340116  RH  047%=      5-min Rain = 0
KSB1 102217Z 25007KT 23/12 A3005 RMK A01 T02340115  RH  047%=      5-min Rain = 0
KSB1 102218Z 28007KT 23/12 A3005 RMK A01 T02330116  RH  048%=      5-min Rain = 0
KSB1 102219Z 29007KT 23/12 A3005 RMK A01 T02330116  RH  048%=      5-min Rain = 0
KSB1 102220Z 28009KT 23/12 A3005 RMK A01 T02340115  RH  047%=      5-min Rain = 0
KSB1 102221Z 28009KT 23/12 A3005 RMK A01 T02340115  RH  047%=      5-min Rain = 0
KSB1 102222Z 28008KT 23/12 A3005 RMK A01 T02340115  RH  047%=      5-min Rain = 0
KSB1 102223Z 28006KT 23/12 A3005 RMK A01 T02330115  RH  047%=      5-min Rain = 0
KSB1 102224Z 26007KT 23/12 A3005 RMK A01 T02330115  RH  047%=      5-min Rain = 0
KSB1 102225Z 27006KT 23/11 A3005 RMK A01 T02330114  RH  047%=      5-min Rain = 0
KSB1 102226Z 28007KT 23/12 A3005 RMK A01 T02320115  RH  048%=      5-min Rain = 0
KSB1 102227Z 28006KT 23/12 A3005 RMK A01 T02330115  RH  047%=      5-min Rain = 0
KSB1 102228Z 30007KT 23/12 A3005 RMK A01 T02330115  RH  047%=      5-min Rain = 0
KSB1 102229Z 28005KT 23/12 A3005 RMK A01 T02330115  RH  047%=      5-min Rain = 0
KSB1 102230Z 28008KT 23/12 A3005 RMK A01 T02320115  RH  048%=      5-min Rain = 0
KSB1 102231Z 27008KT 23/11 A3005 RMK A01 T02320114  RH  047%=      5-min Rain = 0
KSB1 102232Z 27007KT 23/11 A3005 RMK A01 T02320113  RH  047%=      5-min Rain = 0
KSB1 102233Z 27008KT 23/11 A3005 RMK A01 T02320113  RH  047%=      5-min Rain = 0
KSB1 102234Z 28008KT 23/11 A3005 RMK A01 T02320114  RH  047%=      5-min Rain = 0
KSB1 102235Z 28007KT 23/12 A3005 RMK A01 T02310115  RH  048%=      5-min Rain = 0
KSB1 102236Z 26008KT 23/12 A3005 RMK A01 T02310115  RH  048%=      5-min Rain = 0
KSB1 102237Z 26008KT 23/12 A3005 RMK A01 T02310115  RH  048%=      5-min Rain = 0
KSB1 102238Z 26007KT 23/11 A3005 RMK A01 T02300114  RH  048%=      5-min Rain = 0
KSB1 102239Z 25008G13KT 23/11 A3005 RMK A01 T02300113  RH  048%=      5-min Rain = 0
KSB1 102240Z 27008KT 23/11 A3005 RMK A01 T02300113  RH  048%=      5-min Rain = 0
KSB1 102241Z 27006KT 23/11 A3005 RMK A01 T02300114  RH  048%=      5-min Rain = 0
KSB1 102242Z 27008KT 23/11 A3005 RMK A01 T02310113  RH  047%=      5-min Rain = 0
KSB1 102243Z 26008KT 23/11 A3005 RMK A01 T02310113  RH  047%=      5-min Rain = 0
KSB1 102244Z 29007KT 23/11 A3005 RMK A01 T02310114  RH  048%=      5-min Rain = 0
KSB1 102245Z 29005KT 23/11 A3005 RMK A01 T02310114  RH  048%=      5-min Rain = 0
KSB1 102246Z 30007KT 23/11 A3005 RMK A01 T02310114  RH  048%=      5-min Rain = 0
KSB1 102247Z 28007KT 23/11 A3005 RMK A01 T02310113  RH  048%=      5-min Rain = 0
KSB1 102248Z 26008KT 23/11 A3005 RMK A01 T02310112  RH  047%=      5-min Rain = 0
KSB1 102249Z 28007KT 23/11 A3005 RMK A01 T02310111  RH  047%=      5-min Rain = 0
KSB1 102250Z 29007KT 23/11 A3005 RMK A01 T02310112  RH  047%=      5-min Rain = 0
KSB1 102251Z 28006KT 23/11 A3005 RMK A01 T02310112  RH  047%=      5-min Rain = 0
KSB1 102252Z 28007KT 23/11 A3005 RMK A01 T02300112  RH  047%=      5-min Rain = 0
KSB1 102253Z 28009KT 23/11 A3005 RMK A01 T02310113  RH  047%=      5-min Rain = 0
KSB1 102254Z 28008KT 23/11 A3005 RMK A01 T02300113  RH  047%=      5-min Rain = 0
KSB1 102255Z 27005KT 23/11 A3005 RMK A01 T02300113  RH  048%=      5-min Rain = 0
KSB1 102256Z 27008KT 23/11 A3005 RMK A01 T02300113  RH  048%=      5-min Rain = 0
KSB1 102257Z 27008KT 23/11 A3005 RMK A01 T02290111  RH  047%=      5-min Rain = 0
KSB1 102258Z 29007KT 23/11 A3005 RMK A01 T02290111  RH  047%=      5-min Rain = 0
KSB1 102259Z 29007KT 23/11 A3005 RMK A01 T02290112  RH  047%=      5-min Rain = 0
KSB1 102300Z 28005KT 23/11 A3005 RMK A01 T02290112  RH  048%=      5-min Rain = 0
KSB1 102301Z 28007KT 23/11 A3005 RMK A01 T02290112  RH  048%=      5-min Rain = 0
KSB1 102302Z 29007KT 23/11 A3005 RMK A01 T02290111  RH  047%=      5-min Rain = 0
KSB1 102303Z 29007KT 23/11 A3005 RMK A01 T02290112  RH  048%=      5-min Rain = 0
KSB1 102304Z 29008KT 23/11 A3005 RMK A01 T02290112  RH  048%=      5-min Rain = 0
KSB1 102305Z 29008KT 23/11 A3005 RMK A01 T02280111  RH  048%=      5-min Rain = 0
KSB1 102306Z 29007KT 23/11 A3005 RMK A01 T02280111  RH  048%=      5-min Rain = 0
KSB1 102307Z 29007KT 23/11 A3005 RMK A01 T02270112  RH  048%=      5-min Rain = 0
KSB1 102308Z 29008KT 23/11 A3005 RMK A01 T02270112  RH  048%=      5-min Rain = 0
KSB1 102309Z 29007KT 23/11 A3005 RMK A01 T02270112  RH  048%=      5-min Rain = 0
KSB1 102310Z 30005KT 23/11 A3005 RMK A01 T02270112  RH  048%=      5-min Rain = 0
KSB1 102311Z 30006KT 23/11 A3005 RMK A01 T02270112  RH  048%=      5-min Rain = 0
KSB1 102312Z 30005KT 23/11 A3005 RMK A01 T02270111  RH  048%=      5-min Rain = 0
KSB1 102313Z 30006KT 23/11 A3005 RMK A01 T02270112  RH  048%=      5-min Rain = 0
KSB1 102314Z 30007KT 23/11 A3005 RMK A01 T02270112  RH  048%=      5-min Rain = 0
KSB1 102315Z 30007KT 23/11 A3005 RMK A01 T02260112  RH  048%=      5-min Rain = 0
KSB1 102316Z 30005KT 23/11 A3005 RMK A01 T02260111  RH  048%=      5-min Rain = 0
KSB1 102317Z 29005KT 23/11 A3005 RMK A01 T02260112  RH  048%=      5-min Rain = 0
KSB1 102318Z 27005KT 23/11 A3005 RMK A01 T02260112  RH  048%=      5-min Rain = 0
KSB1 102319Z 29005KT 23/11 A3005 RMK A01 T02260111  RH  048%=      5-min Rain = 0
KSB1 102320Z 28006KT 23/11 A3005 RMK A01 T02250112  RH  049%=      5-min Rain = 0
KSB1 102321Z 29006KT 23/11 A3005 RMK A01 T02250112  RH  049%=      5-min Rain = 0
KSB1 102322Z 30005KT 23/11 A3005 RMK A01 T02250112  RH  049%=      5-min Rain = 0
KSB1 102323Z 30004KT 23/11 A3005 RMK A01 T02250113  RH  049%=      5-min Rain = 0
KSB1 102324Z 30004KT 23/11 A3005 RMK A01 T02250113  RH  049%=      5-min Rain = 0
KSB1 102325Z 30005KT 22/11 A3005 RMK A01 T02240113  RH  049%=      5-min Rain = 0
KSB1 102326Z 30004KT 22/11 A3005 RMK A01 T02240113  RH  049%=      5-min Rain = 0
KSB1 102327Z 30006KT 22/11 A3005 RMK A01 T02240113  RH  050%=      5-min Rain = 0
KSB1 102328Z 31005KT 22/11 A3005 RMK A01 T02230113  RH  050%=      5-min Rain = 0
KSB1 102329Z 31005KT 22/11 A3005 RMK A01 T02230113  RH  050%=      5-min Rain = 0
KSB1 102330Z 31005KT 22/11 A3005 RMK A01 T02230113  RH  050%=      5-min Rain = 0
KSB1 102331Z 30005KT 22/11 A3005 RMK A01 T02230113  RH  050%=      5-min Rain = 0
KSB1 102332Z 30005KT 22/11 A3005 RMK A01 T02230113  RH  050%=      5-min Rain = 0
KSB1 102333Z 30005KT 22/11 A3005 RMK A01 T02220113  RH  050%=      5-min Rain = 0
KSB1 102334Z 29005KT 22/11 A3005 RMK A01 T02230114  RH  050%=      5-min Rain = 0
KSB1 102335Z 29005KT 22/11 A3005 RMK A01 T02220113  RH  050%=      5-min Rain = 0
KSB1 102336Z 28005KT 22/11 A3005 RMK A01 T02220113  RH  050%=      5-min Rain = 0
KSB1 102337Z 29005KT 22/11 A3005 RMK A01 T02220113  RH  050%=      5-min Rain = 0
KSB1 102338Z 29004KT 22/11 A3005 RMK A01 T02220114  RH  050%=      5-min Rain = 0
KSB1 102339Z 30003KT 22/11 A3005 RMK A01 T02220114  RH  050%=      5-min Rain = 0
KSB1 102340Z 29005KT 22/11 A3005 RMK A01 T02210114  RH  050%=      5-min Rain = 0
KSB1 102341Z 28006KT 22/11 A3005 RMK A01 T02210113  RH  050%=      5-min Rain = 0
KSB1 102342Z 28005KT 22/11 A3005 RMK A01 T02210113  RH  050%=      5-min Rain = 0
KSB1 102343Z 29005KT 22/11 A3005 RMK A01 T02210114  RH  050%=      5-min Rain = 0
KSB1 102344Z 30005KT 22/11 A3005 RMK A01 T02210114  RH  051%=      5-min Rain = 0
KSB1 102345Z 30006KT 22/11 A3005 RMK A01 T02210113  RH  051%=      5-min Rain = 0
KSB1 102346Z 30004KT 22/11 A3005 RMK A01 T02210114  RH  051%=      5-min Rain = 0
KSB1 102347Z 29005KT 22/11 A3005 RMK A01 T02210114  RH  051%=      5-min Rain = 0
KSB1 102348Z 31003KT 22/11 A3005 RMK A01 T02210114  RH  051%=      5-min Rain = 0
KSB1 102349Z 31004KT 22/11 A3005 RMK A01 T02200114  RH  051%=      5-min Rain = 0
KSB1 102350Z 31003KT 22/11 A3005 RMK A01 T02200113  RH  051%=      5-min Rain = 0
KSB1 102351Z 29003KT 22/11 A3005 RMK A01 T02200114  RH  051%=      5-min Rain = 0
KSB1 102352Z 29003KT 22/11 A3005 RMK A01 T02200114  RH  051%=      5-min Rain = 0
KSB1 102353Z 29003KT 22/11 A3005 RMK A01 T02190114  RH  051%=      5-min Rain = 0
KSB1 102354Z 29004KT 22/11 A3006 RMK A01 T02190114  RH  051%=      5-min Rain = 0
KSB1 102355Z 30004KT 22/11 A3006 RMK A01 T02180114  RH  052%=      5-min Rain = 0
KSB1 102356Z 31004KT 22/11 A3006 RMK A01 T02180114  RH  052%=      5-min Rain = 0
KSB1 102357Z 31004KT 22/11 A3006 RMK A01 T02180114  RH  052%=      5-min Rain = 0
KSB1 102358Z 29003KT 22/11 A3005 RMK A01 T02180113  RH  052%=      5-min Rain = 0
KSB1 102359Z 30003KT 22/11 A3006 RMK A01 T02180114  RH  052%=      5-min Rain = 0
KSB1 110000Z 29003KT 22/11 A3005 RMK A01 T02180114  RH  052%=      5-min Rain = 0
KSB1 110001Z 30003KT 22/11 A3006 RMK A01 T02180114  RH  052%=      5-min Rain = 0
KSB1 110002Z 30003KT 22/11 A3006 RMK A01 T02180114  RH  052%=      5-min Rain = 0
KSB1 110003Z 31003KT 22/11 A3006 RMK A01 T02170114  RH  052%=      5-min Rain = 0
KSB1 110004Z 29004KT 22/11 A3006 RMK A01 T02160114  RH  052%=      5-min Rain = 0
KSB1 110005Z 31004KT 22/11 A3006 RMK A01 T02170114  RH  052%=      5-min Rain = 0
KSB1 110006Z 30003KT 22/11 A3006 RMK A01 T02160113  RH  052%=      5-min Rain = 0
KSB1 110007Z 29003KT 22/11 A3006 RMK A01 T02160113  RH  052%=      5-min Rain = 0
KSB1 110008Z 29003KT 22/11 A3006 RMK A01 T02160114  RH  052%=      5-min Rain = 0
KSB1 110009Z 30003KT 22/11 A3006 RMK A01 T02150114  RH  052%=      5-min Rain = 0
KSB1 110010Z 30003KT 22/11 A3006 RMK A01 T02150114  RH  053%=      5-min Rain = 0
KSB1 110011Z 30003KT 21/11 A3006 RMK A01 T02140113  RH  053%=      5-min Rain = 0
KSB1 110012Z 30003KT 21/11 A3006 RMK A01 T02140114  RH  053%=      5-min Rain = 0
KSB1 110013Z 30004KT 21/11 A3006 RMK A01 T02140114  RH  053%=      5-min Rain = 0
KSB1 110014Z 29004KT 21/11 A3006 RMK A01 T02130113  RH  053%=      5-min Rain = 0
KSB1 110015Z 29004KT 21/11 A3006 RMK A01 T02130112  RH  053%=      5-min Rain = 0
KSB1 110016Z 29004KT 21/11 A3006 RMK A01 T02130112  RH  052%=      5-min Rain = 0
KSB1 110017Z 29005KT 21/11 A3006 RMK A01 T02130112  RH  053%=      5-min Rain = 0
KSB1 110018Z 29005KT 21/11 A3006 RMK A01 T02130112  RH  052%=      5-min Rain = 0
KSB1 110019Z 28005KT 21/11 A3006 RMK A01 T02130112  RH  052%=      5-min Rain = 0
KSB1 110020Z 28005KT 21/11 A3006 RMK A01 T02130111  RH  052%=      5-min Rain = 0
KSB1 110021Z 28005KT 21/11 A3006 RMK A01 T02130112  RH  052%=      5-min Rain = 0
KSB1 110022Z 28005KT 21/11 A3006 RMK A01 T02120112  RH  053%=      5-min Rain = 0
KSB1 110023Z 28005KT 21/11 A3006 RMK A01 T02110112  RH  053%=      5-min Rain = 0
KSB1 110024Z 28005KT 21/11 A3006 RMK A01 T02110112  RH  053%=      5-min Rain = 0
KSB1 110025Z 28005KT 21/11 A3006 RMK A01 T02100112  RH  053%=      5-min Rain = 0
KSB1 110026Z 29005KT 21/11 A3006 RMK A01 T02090112  RH  054%=      5-min Rain = 0
KSB1 110027Z 29005KT 21/11 A3006 RMK A01 T02090112  RH  054%=      5-min Rain = 0
KSB1 110028Z 29005KT 21/11 A3006 RMK A01 T02080112  RH  054%=      5-min Rain = 0
KSB1 110029Z 29006KT 21/11 A3006 RMK A01 T02080112  RH  054%=      5-min Rain = 0
KSB1 110030Z 29005KT 21/11 A3006 RMK A01 T02090111  RH  054%=      5-min Rain = 0
KSB1 110031Z 29005KT 21/11 A3006 RMK A01 T02090111  RH  053%=      5-min Rain = 0
KSB1 110032Z 29006KT 21/11 A3006 RMK A01 T02090111  RH  053%=      5-min Rain = 0
KSB1 110033Z 29006KT 21/11 A3006 RMK A01 T02090111  RH  053%=      5-min Rain = 0
KSB1 110034Z 29005KT 21/11 A3006 RMK A01 T02090111  RH  053%=      5-min Rain = 0
KSB1 110035Z 29005KT 21/11 A3006 RMK A01 T02090111  RH  053%=      5-min Rain = 0
KSB1 110036Z 29005KT 21/11 A3006 RMK A01 T02090111  RH  053%=      5-min Rain = 0
KSB1 110037Z 29005KT 21/11 A3006 RMK A01 T02090111  RH  054%=      5-min Rain = 0
KSB1 110038Z 29005KT 21/11 A3006 RMK A01 T02090111  RH  054%=      5-min Rain = 0
KSB1 110039Z 29005KT 21/11 A3006 RMK A01 T02090111  RH  054%=      5-min Rain = 0
KSB1 110040Z 29004KT 21/11 A3006 RMK A01 T02090111  RH  053%=      5-min Rain = 0
KSB1 110041Z 28005KT 21/11 A3006 RMK A01 T02090111  RH  053%=      5-min Rain = 0
KSB1 110042Z 28004KT 21/11 A3006 RMK A01 T02090111  RH  053%=      5-min Rain = 0
KSB1 110043Z 29005KT 21/11 A3006 RMK A01 T02090111  RH  054%=      5-min Rain = 0
KSB1 110044Z 29005KT 21/11 A3006 RMK A01 T02080111  RH  054%=      5-min Rain = 0
KSB1 110045Z 29005KT 21/11 A3006 RMK A01 T02080111  RH  054%=      5-min Rain = 0
KSB1 110046Z 30005KT 21/11 A3006 RMK A01 T02070111  RH  054%=      5-min Rain = 0
KSB1 110047Z 30005KT 21/11 A3006 RMK A01 T02070111  RH  054%=      5-min Rain = 0
KSB1 110048Z 30005KT 21/11 A3006 RMK A01 T02070111  RH  054%=      5-min Rain = 0
KSB1 110049Z 30005KT 21/11 A3006 RMK A01 T02080111  RH  054%=      5-min Rain = 0
KSB1 110050Z 29005KT 21/11 A3006 RMK A01 T02080111  RH  054%=      5-min Rain = 0
KSB1 110051Z 29005KT 21/11 A3006 RMK A01 T02080111  RH  053%=      5-min Rain = 0
KSB1 110052Z 29005KT 21/11 A3006 RMK A01 T02090111  RH  053%=      5-min Rain = 0
KSB1 110053Z 30004KT 21/11 A3006 RMK A01 T02090111  RH  053%=      5-min Rain = 0
KSB1 110054Z 30004KT 21/11 A3006 RMK A01 T02090110  RH  053%=      5-min Rain = 0
KSB1 110055Z 29004KT 21/11 A3006 RMK A01 T02090110  RH  053%=      5-min Rain = 0
KSB1 110056Z 29004KT 21/11 A3006 RMK A01 T02100111  RH  053%=      5-min Rain = 0
KSB1 110057Z 29004KT 21/11 A3006 RMK A01 T02090111  RH  053%=      5-min Rain = 0
KSB1 110058Z 29004KT 21/11 A3006 RMK A01 T02090111  RH  053%=      5-min Rain = 0
KSB1 110059Z 30004KT 21/11 A3006 RMK A01 T02090111  RH  053%=      5-min Rain = 0
KSB1 110100Z 29004KT 21/11 A3006 RMK A01 T02090111  RH  053%=      5-min Rain = 0
KSB1 110101Z 29004KT 21/11 A3006 RMK A01 T02090111  RH  053%=      5-min Rain = 0
KSB1 110102Z 30004KT 21/11 A3006 RMK A01 T02090110  RH  053%=      5-min Rain = 0
KSB1 110103Z 29004KT 21/11 A3006 RMK A01 T02080110  RH  053%=      5-min Rain = 0
KSB1 110104Z 29004KT 21/11 A3006 RMK A01 T02090110  RH  053%=      5-min Rain = 0
KSB1 110105Z 30004KT 21/11 A3006 RMK A01 T02090110  RH  053%=      5-min Rain = 0
KSB1 110106Z 29005KT 21/11 A3006 RMK A01 T02080110  RH  053%=      5-min Rain = 0
KSB1 110107Z 29004KT 21/11 A3006 RMK A01 T02080110  RH  053%=      5-min Rain = 0
KSB1 110108Z 28004KT 21/11 A3006 RMK A01 T02080109  RH  053%=      5-min Rain = 0
KSB1 110109Z 28004KT 21/11 A3006 RMK A01 T02090110  RH  053%=      5-min Rain = 0
KSB1 110110Z 28004KT 21/11 A3006 RMK A01 T02080110  RH  053%=      5-min Rain = 0
KSB1 110111Z 29004KT 21/11 A3006 RMK A01 T02080110  RH  053%=      5-min Rain = 0
KSB1 110112Z 28004KT 21/11 A3006 RMK A01 T02070110  RH  054%=      5-min Rain = 0
KSB1 110113Z 28004KT 21/11 A3006 RMK A01 T02070110  RH  054%=      5-min Rain = 0
KSB1 110114Z 28004KT 21/11 A3006 RMK A01 T02070110  RH  054%=      5-min Rain = 0
KSB1 110115Z 28003KT 21/11 A3006 RMK A01 T02060110  RH  054%=      5-min Rain = 0
KSB1 110116Z 28004KT 21/11 A3006 RMK A01 T02060110  RH  054%=      5-min Rain = 0
KSB1 110117Z 28003KT 21/11 A3006 RMK A01 T02060110  RH  054%=      5-min Rain = 0
KSB1 110118Z 28003KT 21/11 A3006 RMK A01 T02060109  RH  054%=      5-min Rain = 0
KSB1 110119Z 28004KT 21/11 A3006 RMK A01 T02060110  RH  054%=      5-min Rain = 0
KSB1 110120Z 28004KT 21/11 A3006 RMK A01 T02060110  RH  054%=      5-min Rain = 0
KSB1 110121Z 28004KT 21/11 A3006 RMK A01 T02060110  RH  054%=      5-min Rain = 0
KSB1 110122Z 27003KT 21/11 A3006 RMK A01 T02050109  RH  054%=      5-min Rain = 0
KSB1 110123Z 26004KT 21/11 A3006 RMK A01 T02050109  RH  054%=      5-min Rain = 0
KSB1 110124Z 27004KT 21/11 A3006 RMK A01 T02050109  RH  054%=      5-min Rain = 0
KSB1 110125Z 28004KT 21/11 A3006 RMK A01 T02050109  RH  054%=      5-min Rain = 0
KSB1 110126Z 27004KT 20/11 A3006 RMK A01 T02040109  RH  054%=      5-min Rain = 0
KSB1 110127Z 27004KT 20/11 A3006 RMK A01 T02040109  RH  055%=      5-min Rain = 0
KSB1 110128Z 27004KT 20/11 A3006 RMK A01 T02030109  RH  055%=      5-min Rain = 0
KSB1 110129Z 27004KT 20/11 A3006 RMK A01 T02030109  RH  055%=      5-min Rain = 0
KSB1 110130Z 27004KT 20/11 A3006 RMK A01 T02030109  RH  055%=      5-min Rain = 0
KSB1 110131Z 28004KT 20/11 A3006 RMK A01 T02020108  RH  055%=      5-min Rain = 0
KSB1 110132Z 28004KT 20/11 A3006 RMK A01 T02020108  RH  055%=      5-min Rain = 0
KSB1 110133Z 27004KT 20/11 A3006 RMK A01 T02010108  RH  055%=      5-min Rain = 0
KSB1 110134Z 28005KT 20/11 A3006 RMK A01 T02010107  RH  055%=      5-min Rain = 0
KSB1 110135Z 29005KT 20/11 A3006 RMK A01 T02010107  RH  054%=      5-min Rain = 0
KSB1 110136Z 29005KT 20/11 A3006 RMK A01 T02010106  RH  054%=      5-min Rain = 0
KSB1 110137Z 28005KT 20/11 A3006 RMK A01 T02020106  RH  054%=      5-min Rain = 0
KSB1 110138Z 28004KT 20/11 A3006 RMK A01 T02020106  RH  054%=      5-min Rain = 0
KSB1 110139Z 28004KT 20/11 A3006 RMK A01 T02020105  RH  054%=      5-min Rain = 0
KSB1 110140Z 29004KT 20/11 A3006 RMK A01 T02030106  RH  054%=      5-min Rain = 0
KSB1 110141Z 29004KT 20/11 A3006 RMK A01 T02030105  RH  053%=      5-min Rain = 0
KSB1 110142Z 28004KT 20/11 A3006 RMK A01 T02030105  RH  053%=      5-min Rain = 0
KSB1 110143Z 28004KT 20/10 A3006 RMK A01 T02030104  RH  053%=      5-min Rain = 0
KSB1 110144Z 28004KT 20/10 A3006 RMK A01 T02040104  RH  053%=      5-min Rain = 0
KSB1 110145Z 28004KT 20/10 A3006 RMK A01 T02030104  RH  053%=      5-min Rain = 0
KSB1 110146Z 28004KT 20/10 A3006 RMK A01 T02040104  RH  053%=      5-min Rain = 0
KSB1 110147Z 28004KT 20/10 A3006 RMK A01 T02030104  RH  053%=      5-min Rain = 0
KSB1 110148Z 29004KT 20/10 A3006 RMK A01 T02030104  RH  053%=      5-min Rain = 0
KSB1 110149Z 29004KT 20/11 A3006 RMK A01 T02030105  RH  053%=      5-min Rain = 0
KSB1 110150Z 29004KT 20/10 A3006 RMK A01 T02020104  RH  053%=      5-min Rain = 0
KSB1 110151Z 29004KT 20/10 A3006 RMK A01 T02020104  RH  053%=      5-min Rain = 0
KSB1 110152Z 29003KT 20/10 A3006 RMK A01 T02030104  RH  053%=      5-min Rain = 0
KSB1 110153Z 28004KT 20/10 A3006 RMK A01 T02030103  RH  053%=      5-min Rain = 0
KSB1 110154Z 28004KT 20/10 A3006 RMK A01 T02040103  RH  052%=      5-min Rain = 0
KSB1 110155Z 28003KT 20/10 A3006 RMK A01 T02040103  RH  052%=      5-min Rain = 0
KSB1 110156Z 28004KT 20/10 A3006 RMK A01 T02040103  RH  052%=      5-min Rain = 0
KSB1 110157Z 28004KT 21/10 A3006 RMK A01 T02050104  RH  052%=      5-min Rain = 0
KSB1 110158Z 28004KT 21/10 A3006 RMK A01 T02050104  RH  052%=      5-min Rain = 0
KSB1 110159Z 28004KT 21/10 A3006 RMK A01 T02050104  RH  052%=      5-min Rain = 0
KSB1 110200Z 28004KT 20/10 A3006 RMK A01 T02040104  RH  052%=      5-min Rain = 0
KSB1 110201Z 29004KT 20/10 A3007 RMK A01 T02030104  RH  053%=      5-min Rain = 0
KSB1 110202Z 29004KT 20/10 A3007 RMK A01 T02030104  RH  053%=      5-min Rain = 0
KSB1 110203Z 29003KT 20/10 A3007 RMK A01 T02030103  RH  053%=      5-min Rain = 0
KSB1 110204Z 29003KT 20/10 A3007 RMK A01 T02020103  RH  053%=      5-min Rain = 0
KSB1 110205Z 29003KT 20/10 A3007 RMK A01 T02030103  RH  053%=      5-min Rain = 0
KSB1 110206Z 29003KT 20/10 A3007 RMK A01 T02030103  RH  053%=      5-min Rain = 0
KSB1 110207Z 29003KT 20/10 A3007 RMK A01 T02020103  RH  053%=      5-min Rain = 0
KSB1 110208Z 29003KT 20/10 A3007 RMK A01 T02030102  RH  052%=      5-min Rain = 0
KSB1 110209Z 30003KT 20/10 A3007 RMK A01 T02030102  RH  052%=      5-min Rain = 0
KSB1 110210Z 29003KT 20/10 A3007 RMK A01 T02030102  RH  052%=      5-min Rain = 0
KSB1 110211Z 28003KT 20/10 A3007 RMK A01 T02030102  RH  052%=      5-min Rain = 0
KSB1 110212Z 29004KT 20/10 A3007 RMK A01 T02040102  RH  052%=      5-min Rain = 0
KSB1 110213Z 29004KT 20/10 A3007 RMK A01 T02030102  RH  052%=      5-min Rain = 0
KSB1 110214Z 28003KT 20/10 A3007 RMK A01 T02030102  RH  052%=      5-min Rain = 0
KSB1 110215Z 28003KT 20/10 A3007 RMK A01 T02030102  RH  052%=      5-min Rain = 0
KSB1 110216Z 28003KT 20/10 A3007 RMK A01 T02030102  RH  052%=      5-min Rain = 0
KSB1 110217Z 28003KT 20/10 A3007 RMK A01 T02020102  RH  053%=      5-min Rain = 0
KSB1 110218Z 28003KT 20/10 A3007 RMK A01 T02010103  RH  053%=      5-min Rain = 0
KSB1 110219Z 29003KT 20/10 A3007 RMK A01 T02010103  RH  053%=      5-min Rain = 0
KSB1 110220Z 28003KT 20/10 A3007 RMK A01 T02000102  RH  053%=      5-min Rain = 0
KSB1 110221Z 28004KT 20/10 A3007 RMK A01 T02000101  RH  053%=      5-min Rain = 0
KSB1 110222Z 28004KT 20/10 A3007 RMK A01 T02000101  RH  053%=      5-min Rain = 0
KSB1 110223Z 28004KT 20/10 A3007 RMK A01 T02010102  RH  053%=      5-min Rain = 0
KSB1 110224Z 28004KT 20/10 A3007 RMK A01 T02000102  RH  053%=      5-min Rain = 0
KSB1 110225Z 28003KT 20/10 A3007 RMK A01 T01990102  RH  053%=      5-min Rain = 0
KSB1 110226Z 27003KT 20/10 A3007 RMK A01 T01990102  RH  053%=      5-min Rain = 0
KSB1 110227Z 28003KT 20/10 A3007 RMK A01 T01980102  RH  054%=      5-min Rain = 0
KSB1 110228Z 27003KT 20/10 A3007 RMK A01 T01980101  RH  054%=      5-min Rain = 0
KSB1 110229Z 28004KT 20/10 A3007 RMK A01 T01970101  RH  054%=      5-min Rain = 0
KSB1 110230Z 28004KT 20/10 A3007 RMK A01 T01960101  RH  054%=      5-min Rain = 0
KSB1 110231Z 28004KT 20/10 A3007 RMK A01 T01960101  RH  054%=      5-min Rain = 0
KSB1 110232Z 28004KT 20/10 A3007 RMK A01 T01960101  RH  054%=      5-min Rain = 0
KSB1 110233Z 28005KT 20/10 A3007 RMK A01 T01960100  RH  054%=      5-min Rain = 0
KSB1 110234Z 28005KT 20/10 A3007 RMK A01 T01960100  RH  054%=      5-min Rain = 0
KSB1 110235Z 28005KT 20/10 A3007 RMK A01 T01960100  RH  054%=      5-min Rain = 0
KSB1 110236Z 29005KT 20/10 A3007 RMK A01 T01970100  RH  053%=      5-min Rain = 0
KSB1 110237Z 29005KT 20/10 A3007 RMK A01 T01970100  RH  053%=      5-min Rain = 0
KSB1 110238Z 29005KT 20/10 A3007 RMK A01 T01970100  RH  053%=      5-min Rain = 0
KSB1 110239Z 29005KT 20/10 A3007 RMK A01 T01970100  RH  053%=      5-min Rain = 0
KSB1 110240Z 28005KT 20/10 A3007 RMK A01 T01970100  RH  053%=      5-min Rain = 0
KSB1 110241Z 28004KT 20/10 A3007 RMK A01 T01980100  RH  053%=      5-min Rain = 0
KSB1 110242Z 28004KT 20/10 A3007 RMK A01 T01960099  RH  054%=      5-min Rain = 0
KSB1 110243Z 28004KT 19/10 A3007 RMK A01 T01900099  RH  055%=      5-min Rain = 0
KSB1 110244Z 27004KT 19/10 A3007 RMK A01 T01880100  RH  056%=      5-min Rain = 0
KSB1 110245Z 26004KT 19/10 A3007 RMK A01 T01850099  RH  057%=      5-min Rain = 0
KSB1 110246Z 27004KT 18/10 A3007 RMK A01 T01830099  RH  058%=      5-min Rain = 0
KSB1 110247Z 27004KT 18/10 A3007 RMK A01 T01820099  RH  059%=      5-min Rain = 0
KSB1 110248Z 28004KT 18/10 A3007 RMK A01 T01820100  RH  058%=      5-min Rain = 0
KSB1 110249Z 28004KT 18/10 A3007 RMK A01 T01830100  RH  058%=      5-min Rain = 0
KSB1 110250Z 29004KT 18/10 A3007 RMK A01 T01840100  RH  058%=      5-min Rain = 0
KSB1 110251Z 29004KT 19/10 A3007 RMK A01 T01850100  RH  058%=      5-min Rain = 0
KSB1 110252Z 30005KT 19/10 A3007 RMK A01 T01860099  RH  057%=      5-min Rain = 0
KSB1 110253Z 30005KT 19/10 A3007 RMK A01 T01890099  RH  056%=      5-min Rain = 0
KSB1 110254Z 31004KT 19/10 A3007 RMK A01 T01920098  RH  054%=      5-min Rain = 0
KSB1 110255Z 31004KT 20/10 A3007 RMK A01 T01950098  RH  053%=      5-min Rain = 0
KSB1 110256Z 31004KT 20/10 A3007 RMK A01 T01980098  RH  052%=      5-min Rain = 0
KSB1 110257Z 31005KT 20/10 A3007 RMK A01 T02000097  RH  052%=      5-min Rain = 0
KSB1 110258Z 31004KT 20/10 A3007 RMK A01 T02010097  RH  051%=      5-min Rain = 0
KSB1 110259Z 31004KT 20/10 A3007 RMK A01 T02020097  RH  051%=      5-min Rain = 0
KSB1 110300Z 31005KT 20/10 A3007 RMK A01 T02030097  RH  050%=      5-min Rain = 0
KSB1 110301Z 31005KT 20/10 A3007 RMK A01 T02030096  RH  050%=      5-min Rain = 0
KSB1 110302Z 31005KT 20/10 A3007 RMK A01 T02040095  RH  050%=      5-min Rain = 0
KSB1 110303Z 30005KT 21/10 A3007 RMK A01 T02050095  RH  049%=      5-min Rain = 0
KSB1 110304Z 30006KT 21/10 A3007 RMK A01 T02050095  RH  049%=      5-min Rain = 0
KSB1 110305Z 31005KT 21/10 A3007 RMK A01 T02050095  RH  049%=      5-min Rain = 0
KSB1 110306Z 30004KT 21/10 A3007 RMK A01 T02050095  RH  049%=      5-min Rain = 0
KSB1 110307Z 30004KT 21/10 A3007 RMK A01 T02050095  RH  049%=      5-min Rain = 0
KSB1 110308Z 30004KT 21/10 A3007 RMK A01 T02050095  RH  049%=      5-min Rain = 0
KSB1 110309Z 30004KT 21/10 A3007 RMK A01 T02050095  RH  049%=      5-min Rain = 0
KSB1 110310Z 29003KT 21/10 A3007 RMK A01 T02060095  RH  049%=      5-min Rain = 0
KSB1 110311Z 29004KT 21/10 A3007 RMK A01 T02060095  RH  049%=      5-min Rain = 0
KSB1 110312Z 28003KT 21/10 A3007 RMK A01 T02060095  RH  049%=      5-min Rain = 0
KSB1 110313Z 28003KT 21/09 A3007 RMK A01 T02060094  RH  049%=      5-min Rain = 0
KSB1 110314Z 28003KT 21/10 A3007 RMK A01 T02060095  RH  049%=      5-min Rain = 0
KSB1 110315Z 28004KT 21/09 A3007 RMK A01 T02060094  RH  049%=      5-min Rain = 0
KSB1 110316Z 28003KT 21/10 A3007 RMK A01 T02060095  RH  049%=      5-min Rain = 0
KSB1 110317Z 26003KT 21/10 A3007 RMK A01 T02050095  RH  049%=      5-min Rain = 0
KSB1 110318Z 20004KT 20/09 A3007 RMK A01 T01990094  RH  051%=      5-min Rain = 0
KSB1 110319Z 20004KT 19/09 A3007 RMK A01 T01870091  RH  053%=      5-min Rain = 0
KSB1 110320Z 21004KT 18/09 A3007 RMK A01 T01800091  RH  056%=      5-min Rain = 0
KSB1 110321Z 21005KT 18/09 A3007 RMK A01 T01750091  RH  058%=      5-min Rain = 0
KSB1 110322Z 21005KT 17/09 A3007 RMK A01 T01720092  RH  059%=      5-min Rain = 0
KSB1 110323Z 21005KT 17/09 A3007 RMK A01 T01710093  RH  060%=      5-min Rain = 0
KSB1 110324Z 21004KT 17/09 A3007 RMK A01 T01700093  RH  060%=      5-min Rain = 0
KSB1 110325Z 22004KT 17/09 A3007 RMK A01 T01710093  RH  060%=      5-min Rain = 0
KSB1 110326Z 22004KT 17/09 A3007 RMK A01 T01730094  RH  060%=      5-min Rain = 0
KSB1 110327Z 22003KT 17/09 A3007 RMK A01 T01740094  RH  059%=      5-min Rain = 0
KSB1 110328Z 23002KT 18/09 A3007 RMK A01 T01760093  RH  058%=      5-min Rain = 0
KSB1 110329Z 22002KT 18/09 A3007 RMK A01 T01780093  RH  057%=      5-min Rain = 0
KSB1 110330Z 22002KT 18/09 A3007 RMK A01 T01810093  RH  056%=      5-min Rain = 0
KSB1 110331Z 22002KT 18/09 A3007 RMK A01 T01830094  RH  056%=      5-min Rain = 0
KSB1 110332Z 21002KT 19/09 A3007 RMK A01 T01850094  RH  055%=      5-min Rain = 0
KSB1 110333Z 21002KT 19/09 A3007 RMK A01 T01860094  RH  055%=      5-min Rain = 0
KSB1 110334Z 21002KT 19/09 A3007 RMK A01 T01870094  RH  055%=      5-min Rain = 0
KSB1 110335Z 21002KT 19/09 A3008 RMK A01 T01870094  RH  055%=      5-min Rain = 0
KSB1 110336Z 21002KT 19/10 A3008 RMK A01 T01870095  RH  055%=      5-min Rain = 0
KSB1 110337Z 22002KT 19/10 A3008 RMK A01 T01880095  RH  055%=      5-min Rain = 0
KSB1 110338Z 22002KT 19/10 A3008 RMK A01 T01890095  RH  055%=      5-min Rain = 0
KSB1 110339Z 21002KT 19/10 A3008 RMK A01 T01890096  RH  055%=      5-min Rain = 0
KSB1 110340Z 21002KT 19/10 A3008 RMK A01 T01900097  RH  054%=      5-min Rain = 0
KSB1 110341Z 22002KT 19/10 A3008 RMK A01 T01910095  RH  054%=      5-min Rain = 0
KSB1 110342Z 22002KT 19/10 A3008 RMK A01 T01920096  RH  054%=      5-min Rain = 0
KSB1 110343Z 22003KT 19/10 A3008 RMK A01 T01920096  RH  054%=      5-min Rain = 0
KSB1 110344Z 21002KT 19/10 A3008 RMK A01 T01920096  RH  054%=      5-min Rain = 0
KSB1 110345Z 22002KT 19/10 A3008 RMK A01 T01920096  RH  053%=      5-min Rain = 0
KSB1 110346Z 23002KT 19/10 A3008 RMK A01 T01920096  RH  054%=      5-min Rain = 0
KSB1 110347Z 24002KT 19/10 A3008 RMK A01 T01920096  RH  054%=      5-min Rain = 0
KSB1 110348Z 24002KT 19/10 A3008 RMK A01 T01920096  RH  054%=      5-min Rain = 0
KSB1 110349Z 24002KT 19/10 A3008 RMK A01 T01920096  RH  054%=      5-min Rain = 0
KSB1 110350Z 24002KT 19/10 A3008 RMK A01 T01920096  RH  054%=      5-min Rain = 0
KSB1 110351Z 24002KT 19/10 A3008 RMK A01 T01920096  RH  054%=      5-min Rain = 0
KSB1 110352Z 24002KT 19/10 A3008 RMK A01 T01920096  RH  054%=      5-min Rain = 0
KSB1 110353Z 25002KT 19/10 A3008 RMK A01 T01920096  RH  054%=      5-min Rain = 0
KSB1 110354Z 25002KT 19/10 A3008 RMK A01 T01930097  RH  054%=      5-min Rain = 0
KSB1 110355Z 25002KT 19/10 A3008 RMK A01 T01920096  RH  054%=      5-min Rain = 0
KSB1 110356Z 24003KT 19/10 A3008 RMK A01 T01920095  RH  054%=      5-min Rain = 0
KSB1 110357Z 24003KT 19/10 A3008 RMK A01 T01910095  RH  054%=      5-min Rain = 0
KSB1 110358Z 24002KT 19/10 A3008 RMK A01 T01920095  RH  053%=      5-min Rain = 0
KSB1 110359Z 24002KT 19/10 A3008 RMK A01 T01920095  RH  053%=      5-min Rain = 0
KSB1 110400Z 24002KT 19/10 A3008 RMK A01 T01920095  RH  053%=      5-min Rain = 0
KSB1 110401Z 24002KT 19/10 A3008 RMK A01 T01920096  RH  054%=      5-min Rain = 0
KSB1 110402Z 24002KT 19/10 A3008 RMK A01 T01920095  RH  053%=      5-min Rain = 0
KSB1 110403Z 24002KT 19/10 A3008 RMK A01 T01930095  RH  053%=      5-min Rain = 0
KSB1 110404Z 24002KT 19/10 A3008 RMK A01 T01940095  RH  053%=      5-min Rain = 0
KSB1 110405Z 23002KT 19/10 A3008 RMK A01 T01940095  RH  053%=      5-min Rain = 0
KSB1 110406Z 23002KT 19/10 A3008 RMK A01 T01940095  RH  053%=      5-min Rain = 0
KSB1 110407Z 23002KT 19/10 A3008 RMK A01 T01940095  RH  053%=      5-min Rain = 0
KSB1 110408Z 23002KT 19/10 A3008 RMK A01 T01940095  RH  053%=      5-min Rain = 0
KSB1 110409Z 23002KT 19/09 A3008 RMK A01 T01940094  RH  052%=      5-min Rain = 0
KSB1 110410Z 23003KT 19/09 A3008 RMK A01 T01940094  RH  052%=      5-min Rain = 0
KSB1 110411Z 23002KT 19/09 A3008 RMK A01 T01940094  RH  052%=      5-min Rain = 0
KSB1 110412Z 23002KT 19/09 A3008 RMK A01 T01940094  RH  052%=      5-min Rain = 0
KSB1 110413Z 24002KT 19/09 A3008 RMK A01 T01940094  RH  052%=      5-min Rain = 0
KSB1 110414Z 24003KT 19/09 A3008 RMK A01 T01940094  RH  052%=      5-min Rain = 0
KSB1 110415Z 25002KT 20/09 A3008 RMK A01 T01950094  RH  052%=      5-min Rain = 0
KSB1 110416Z 24002KT 20/10 A3008 RMK A01 T01950095  RH  052%=      5-min Rain = 0
KSB1 110417Z 24002KT 20/09 A3008 RMK A01 T01950094  RH  052%=      5-min Rain = 0
KSB1 110418Z 23002KT 20/10 A3008 RMK A01 T01960095  RH  052%=      5-min Rain = 0
KSB1 110419Z 26003KT 20/10 A3008 RMK A01 T01970095  RH  052%=      5-min Rain = 0
KSB1 110420Z 23002KT 20/09 A3008 RMK A01 T01950094  RH  052%=      5-min Rain = 0
KSB1 110421Z 22002KT 20/10 A3008 RMK A01 T01950095  RH  052%=      5-min Rain = 0
KSB1 110422Z 23002KT 19/09 A3008 RMK A01 T01940094  RH  052%=      5-min Rain = 0
KSB1 110423Z 22001KT 19/09 A3008 RMK A01 T01930094  RH  053%=      5-min Rain = 0
KSB1 110424Z 22001KT 19/09 A3008 RMK A01 T01920094  RH  053%=      5-min Rain = 0
KSB1 110425Z 21001KT 19/09 A3008 RMK A01 T01910094  RH  053%=      5-min Rain = 0
KSB1 110426Z 20002KT 19/09 A3008 RMK A01 T01910094  RH  053%=      5-min Rain = 0
KSB1 110427Z 21001KT 19/09 A3008 RMK A01 T01910094  RH  053%=      5-min Rain = 0
KSB1 110428Z 21001KT 19/09 A3008 RMK A01 T01900094  RH  054%=      5-min Rain = 0
KSB1 110429Z 21001KT 19/09 A3008 RMK A01 T01900094  RH  054%=      5-min Rain = 0
KSB1 110430Z 21001KT 19/09 A3008 RMK A01 T01900094  RH  054%=      5-min Rain = 0
KSB1 110431Z 21001KT 19/09 A3008 RMK A01 T01900094  RH  054%=      5-min Rain = 0
KSB1 110432Z 20002KT 19/09 A3008 RMK A01 T01900094  RH  054%=      5-min Rain = 0
KSB1 110433Z 19002KT 19/09 A3008 RMK A01 T01900094  RH  054%=      5-min Rain = 0
KSB1 110434Z 19003KT 19/09 A3008 RMK A01 T01890094  RH  054%=      5-min Rain = 0
KSB1 110435Z 19001KT 19/09 A3008 RMK A01 T01890094  RH  054%=      5-min Rain = 0
KSB1 110436Z 20002KT 19/09 A3008 RMK A01 T01880094  RH  054%=      5-min Rain = 0
KSB1 110437Z 20002KT 19/09 A3008 RMK A01 T01870094  RH  054%=      5-min Rain = 0
KSB1 110438Z 20002KT 19/09 A3008 RMK A01 T01870094  RH  055%=      5-min Rain = 0
KSB1 110439Z 20002KT 19/09 A3008 RMK A01 T01870094  RH  055%=      5-min Rain = 0
KSB1 110440Z 20002KT 19/09 A3008 RMK A01 T01860094  RH  055%=      5-min Rain = 0
KSB1 110441Z 20002KT 19/09 A3008 RMK A01 T01860094  RH  055%=      5-min Rain = 0
KSB1 110442Z 21002KT 19/09 A3008 RMK A01 T01850094  RH  055%=      5-min Rain = 0
KSB1 110443Z 22002KT 19/09 A3008 RMK A01 T01850094  RH  055%=      5-min Rain = 0
KSB1 110444Z 23002KT 19/09 A3008 RMK A01 T01850094  RH  056%=      5-min Rain = 0
KSB1 110445Z 21001KT 18/09 A3008 RMK A01 T01840094  RH  056%=      5-min Rain = 0
KSB1 110446Z 21001KT 19/09 A3008 RMK A01 T01850094  RH  055%=      5-min Rain = 0
KSB1 110447Z 22001KT 19/09 A3008 RMK A01 T01850094  RH  055%=      5-min Rain = 0
KSB1 110448Z 22002KT 19/09 A3008 RMK A01 T01860094  RH  055%=      5-min Rain = 0
KSB1 110449Z 21002KT 19/10 A3008 RMK A01 T01870095  RH  055%=      5-min Rain = 0
KSB1 110450Z 23002KT 19/10 A3008 RMK A01 T01880095  RH  055%=      5-min Rain = 0
KSB1 110451Z 22002KT 19/09 A3008 RMK A01 T01880094  RH  055%=      5-min Rain = 0
KSB1 110452Z 22002KT 19/10 A3008 RMK A01 T01880095  RH  055%=      5-min Rain = 0
KSB1 110453Z 22002KT 19/10 A3008 RMK A01 T01880096  RH  055%=      5-min Rain = 0
KSB1 110454Z 22002KT 19/10 A3008 RMK A01 T01880095  RH  055%=      5-min Rain = 0
KSB1 110455Z 23002KT 19/10 A3008 RMK A01 T01880095  RH  054%=      5-min Rain = 0
KSB1 110456Z 24002KT 19/10 A3008 RMK A01 T01890095  RH  054%=      5-min Rain = 0
KSB1 110457Z 25002KT 19/10 A3008 RMK A01 T01890095  RH  054%=      5-min Rain = 0
KSB1 110458Z 24002KT 19/10 A3008 RMK A01 T01890095  RH  054%=      5-min Rain = 0
KSB1 110459Z 23002KT 19/10 A3008 RMK A01 T01890096  RH  055%=      5-min Rain = 0
KSB1 110500Z 22002KT 19/10 A3008 RMK A01 T01890096  RH  055%=      5-min Rain = 0
KSB1 110501Z 25003KT 19/10 A3008 RMK A01 T01890096  RH  055%=      5-min Rain = 0
KSB1 110502Z 25003KT 19/10 A3008 RMK A01 T01890097  RH  055%=      5-min Rain = 0
KSB1 110503Z 25002KT 19/10 A3008 RMK A01 T01890097  RH  055%=      5-min Rain = 0
KSB1 110504Z 24003KT 19/10 A3008 RMK A01 T01890097  RH  055%=      5-min Rain = 0
KSB1 110505Z 24003KT 19/10 A3008 RMK A01 T01890097  RH  055%=      5-min Rain = 0
KSB1 110506Z 24004KT 19/10 A3008 RMK A01 T01870097  RH  056%=      5-min Rain = 0
KSB1 110507Z 24004KT 19/10 A3008 RMK A01 T01860097  RH  056%=      5-min Rain = 0
KSB1 110508Z 23004KT 19/10 A3008 RMK A01 T01860097  RH  056%=      5-min Rain = 0
KSB1 110509Z 24004KT 18/10 A3008 RMK A01 T01840096  RH  056%=      5-min Rain = 0
KSB1 110510Z 24003KT 18/10 A3008 RMK A01 T01830096  RH  057%=      5-min Rain = 0
KSB1 110511Z 24003KT 18/10 A3008 RMK A01 T01810096  RH  057%=      5-min Rain = 0
KSB1 110512Z 24003KT 18/10 A3008 RMK A01 T01800096  RH  058%=      5-min Rain = 0
KSB1 110513Z 25003KT 18/10 A3008 RMK A01 T01800096  RH  058%=      5-min Rain = 0
KSB1 110514Z 25003KT 18/10 A3008 RMK A01 T01790097  RH  059%=      5-min Rain = 0
KSB1 110515Z 26003KT 18/10 A3008 RMK A01 T01790098  RH  059%=      5-min Rain = 0
KSB1 110516Z 25004KT 18/10 A3008 RMK A01 T01800098  RH  059%=      5-min Rain = 0
KSB1 110517Z 26004KT 18/10 A3008 RMK A01 T01800098  RH  059%=      5-min Rain = 0
KSB1 110518Z 25005KT 18/10 A3008 RMK A01 T01810098  RH  059%=      5-min Rain = 0
KSB1 110519Z 25004KT 18/10 A3008 RMK A01 T01820099  RH  058%=      5-min Rain = 0
KSB1 110520Z 26005KT 18/10 A3008 RMK A01 T01830099  RH  058%=      5-min Rain = 0
KSB1 110521Z 26004KT 18/10 A3008 RMK A01 T01840099  RH  058%=      5-min Rain = 0
KSB1 110522Z 26004KT 18/10 A3008 RMK A01 T01840099  RH  058%=      5-min Rain = 0
KSB1 110523Z 26004KT 18/10 A3008 RMK A01 T01840099  RH  058%=      5-min Rain = 0
KSB1 110524Z 26004KT 18/10 A3008 RMK A01 T01840100  RH  058%=      5-min Rain = 0
KSB1 110525Z 26004KT 18/10 A3008 RMK A01 T01840100  RH  058%=      5-min Rain = 0
KSB1 110526Z 26004KT 18/10 A3008 RMK A01 T01840100  RH  058%=      5-min Rain = 0
KSB1 110527Z 27004KT 18/10 A3008 RMK A01 T01840100  RH  058%=      5-min Rain = 0
KSB1 110528Z 28004KT 18/10 A3008 RMK A01 T01840100  RH  058%=      5-min Rain = 0
KSB1 110529Z 27004KT 18/10 A3008 RMK A01 T01840100  RH  058%=      5-min Rain = 0
KSB1 110530Z 27004KT 18/10 A3008 RMK A01 T01840101  RH  058%=      5-min Rain = 0
KSB1 110531Z 27004KT 19/10 A3008 RMK A01 T01850101  RH  058%=      5-min Rain = 0
KSB1 110532Z 26005KT 19/10 A3008 RMK A01 T01850102  RH  058%=      5-min Rain = 0
KSB1 110533Z 25005KT 19/10 A3008 RMK A01 T01870102  RH  058%=      5-min Rain = 0
KSB1 110534Z 26005KT 19/10 A3008 RMK A01 T01870102  RH  058%=      5-min Rain = 0
KSB1 110535Z 26005KT 19/10 A3008 RMK A01 T01870101  RH  058%=      5-min Rain = 0
KSB1 110536Z 27004KT 19/10 A3008 RMK A01 T01850101  RH  058%=      5-min Rain = 0
KSB1 110537Z 27004KT 18/10 A3008 RMK A01 T01840101  RH  058%=      5-min Rain = 0
KSB1 110538Z 25004KT 18/10 A3008 RMK A01 T01830101  RH  059%=      5-min Rain = 0
KSB1 110539Z 25005KT 18/10 A3008 RMK A01 T01820101  RH  059%=      5-min Rain = 0
KSB1 110540Z 25004KT 18/10 A3008 RMK A01 T01820101  RH  059%=      5-min Rain = 0
KSB1 110541Z 25004KT 18/10 A3008 RMK A01 T01810101  RH  060%=      5-min Rain = 0
KSB1 110542Z 26004KT 18/10 A3008 RMK A01 T01800102  RH  060%=      5-min Rain = 0
KSB1 110543Z 25004KT 18/10 A3008 RMK A01 T01790102  RH  060%=      5-min Rain = 0
KSB1 110544Z 25004KT 18/10 A3008 RMK A01 T01790102  RH  060%=      5-min Rain = 0
KSB1 110545Z 25005KT 18/10 A3008 RMK A01 T01790102  RH  061%=      5-min Rain = 0
KSB1 110546Z 25005KT 18/10 A3008 RMK A01 T01790102  RH  061%=      5-min Rain = 0
KSB1 110547Z 26005KT 18/10 A3008 RMK A01 T01790103  RH  061%=      5-min Rain = 0
KSB1 110548Z 26005KT 18/10 A3008 RMK A01 T01790103  RH  061%=      5-min Rain = 0
KSB1 110549Z 26005KT 18/10 A3008 RMK A01 T01790104  RH  062%=      5-min Rain = 0
KSB1 110550Z 25006KT 18/11 A3008 RMK A01 T01800106  RH  062%=      5-min Rain = 0
KSB1 110551Z 24006KT 18/11 A3008 RMK A01 T01830106  RH  061%=      5-min Rain = 0
KSB1 110552Z 26006KT 18/11 A3008 RMK A01 T01840106  RH  060%=      5-min Rain = 0
KSB1 110553Z 26006KT 19/11 A3008 RMK A01 T01850106  RH  060%=      5-min Rain = 0
KSB1 110554Z 26005KT 19/11 A3008 RMK A01 T01850106  RH  060%=      5-min Rain = 0
KSB1 110555Z 26005KT 19/11 A3008 RMK A01 T01850105  RH  060%=      5-min Rain = 0
KSB1 110556Z 25006KT 19/11 A3008 RMK A01 T01860105  RH  059%=      5-min Rain = 0
KSB1 110557Z 24006KT 19/11 A3008 RMK A01 T01870105  RH  059%=      5-min Rain = 0
KSB1 110558Z 24006KT 19/10 A3008 RMK A01 T01870104  RH  059%=      5-min Rain = 0
KSB1 110559Z 24005KT 19/10 A3008 RMK A01 T01860104  RH  059%=      5-min Rain = 0

Page generated in 0.0816 seconds.